Wetterdaten: Mittwoch, 14.10.2015
Datum Zeit Temp. A. Feuchte A. Luftdruck Regen Wind Richtung Richtung Sonnenschein ET UV Solar Taupunkt Windchill Windben Empfang
14.10.2015 00:00 4,8 C 94 % 1012,7 hPa 0,0 l/m 3,4 km/h (1 Bft) N-NO 17 0 min 0,000 mm 0,0 UV-I 0 W/m 3,9 C 4,8 C 4,8 km/h (1 Bft) 100,00 %
14.10.2015 00:02 4,8 C 94 % 1012,5 hPa 0,0 l/m 3,6 km/h (1 Bft) N-NO 28 0 min 0,000 mm 0,0 UV-I 0 W/m 3,9 C 4,8 C 6,4 km/h (2 Bft) 97,44 %
14.10.2015 00:04 4,8 C 94 % 1012,5 hPa 0,0 l/m 3,9 km/h (1 Bft) NO 37 0 min 0,000 mm 0,0 UV-I 0 W/m 3,9 C 4,8 C 6,4 km/h (2 Bft) 100,00 %
14.10.2015 00:06 4,8 C 94 % 1012,4 hPa 0,0 l/m 3,0 km/h (1 Bft) N-NO 24 0 min 0,000 mm 0,0 UV-I 0 W/m 3,9 C 4,8 C 6,4 km/h (2 Bft) 98,00 %
14.10.2015 00:08 4,8 C 94 % 1012,4 hPa 0,0 l/m 4,2 km/h (1 Bft) NO 35 0 min 0,000 mm 0,0 UV-I 0 W/m 3,9 C 4,8 C 6,4 km/h (2 Bft) 97,87 %
14.10.2015 00:10 4,8 C 94 % 1012,3 hPa 0,0 l/m 3,0 km/h (1 Bft) N-NO 25 0 min 0,000 mm 0,0 UV-I 0 W/m 3,9 C 4,8 C 4,8 km/h (1 Bft) 97,37 %
14.10.2015 00:12 4,8 C 94 % 1012,3 hPa 0,0 l/m 2,4 km/h (1 Bft) N-NO 29 0 min 0,000 mm 0,0 UV-I 0 W/m 3,9 C 4,8 C 6,4 km/h (2 Bft) 98,00 %
14.10.2015 00:14 4,8 C 94 % 1012,3 hPa 0,0 l/m 1,9 km/h (1 Bft) NO 51 0 min 0,000 mm 0,0 UV-I 0 W/m 3,9 C 4,8 C 3,2 km/h (1 Bft) 100,00 %
14.10.2015 00:16 4,8 C 94 % 1012,3 hPa 0,0 l/m 1,8 km/h (1 Bft) NO 56 0 min 0,000 mm 0,0 UV-I 0 W/m 3,9 C 4,8 C 4,8 km/h (1 Bft) 100,00 %
14.10.2015 00:18 4,7 C 94 % 1012,3 hPa 0,0 l/m 1,2 km/h (1 Bft) NO 38 0 min 0,000 mm 0,0 UV-I 0 W/m 3,8 C 4,7 C 3,2 km/h (1 Bft) 100,00 %
14.10.2015 00:20 4,7 C 94 % 1012,3 hPa 0,0 l/m 2,4 km/h (1 Bft) N-NO 28 0 min 0,000 mm 0,0 UV-I 0 W/m 3,8 C 4,7 C 4,8 km/h (1 Bft) 100,00 %
14.10.2015 00:22 4,7 C 94 % 1012,2 hPa 0,0 l/m 3,7 km/h (1 Bft) O 86 0 min 0,000 mm 0,0 UV-I 0 W/m 3,8 C 4,7 C 8,0 km/h (2 Bft) 100,00 %
14.10.2015 00:24 4,7 C 94 % 1012,3 hPa 0,0 l/m 2,5 km/h (1 Bft) NO 49 0 min 0,000 mm 0,0 UV-I 0 W/m 3,8 C 4,7 C 6,4 km/h (2 Bft) 100,00 %
14.10.2015 00:26 4,7 C 94 % 1012,3 hPa 0,0 l/m 1,8 km/h (1 Bft) O-NO 74 0 min 0,000 mm 0,0 UV-I 0 W/m 3,8 C 4,7 C 3,2 km/h (1 Bft) 98,11 %
14.10.2015 00:28 4,7 C 94 % 1012,3 hPa 0,0 l/m 1,6 km/h (1 Bft) NO 49 0 min 0,000 mm 0,0 UV-I 0 W/m 3,8 C 4,7 C 4,8 km/h (1 Bft) 94,74 %
14.10.2015 00:30 4,7 C 94 % 1012,3 hPa 0,0 l/m 2,1 km/h (1 Bft) O 101 0 min 0,000 mm 0,0 UV-I 0 W/m 3,8 C 4,7 C 4,8 km/h (1 Bft) 98,21 %
14.10.2015 00:32 4,7 C 95 % 1012,2 hPa 0,0 l/m 1,4 km/h (1 Bft) NO 34 0 min 0,000 mm 0,0 UV-I 0 W/m 4,0 C 4,7 C 3,2 km/h (1 Bft) 100,00 %
14.10.2015 00:34 4,7 C 94 % 1012,2 hPa 0,0 l/m 2,9 km/h (1 Bft) N-NO 29 0 min 0,000 mm 0,0 UV-I 0 W/m 3,8 C 4,7 C 4,8 km/h (1 Bft) 100,00 %
14.10.2015 00:36 4,8 C 95 % 1012,2 hPa 0,0 l/m 3,5 km/h (1 Bft) N-NO 16 0 min 0,000 mm 0,0 UV-I 0 W/m 4,1 C 4,8 C 6,4 km/h (2 Bft) 98,00 %
14.10.2015 00:38 4,8 C 95 % 1012,3 hPa 0,0 l/m 2,4 km/h (1 Bft) NO 53 0 min 0,000 mm 0,0 UV-I 0 W/m 4,1 C 4,8 C 4,8 km/h (1 Bft) 100,00 %
14.10.2015 00:40 4,8 C 95 % 1012,3 hPa 0,0 l/m 2,2 km/h (1 Bft) N-NO 24 0 min 0,000 mm 0,0 UV-I 0 W/m 4,1 C 4,8 C 3,2 km/h (1 Bft) 100,00 %
14.10.2015 00:42 4,7 C 95 % 1012,3 hPa 0,0 l/m 1,4 km/h (1 Bft) N-NO 26 0 min 0,000 mm 0,0 UV-I 0 W/m 4,0 C 4,7 C 4,8 km/h (1 Bft) 100,00 %
14.10.2015 00:44 4,7 C 95 % 1012,2 hPa 0,0 l/m 1,6 km/h (1 Bft) N-NO 19 0 min 0,000 mm 0,0 UV-I 0 W/m 4,0 C 4,7 C 3,2 km/h (1 Bft) 98,00 %
14.10.2015 00:46 4,7 C 95 % 1012,2 hPa 0,2 l/m 2,4 km/h (1 Bft) N-NO 15 0 min 0,000 mm 0,0 UV-I 0 W/m 4,0 C 4,7 C 3,2 km/h (1 Bft) 100,00 %
14.10.2015 00:48 4,7 C 95 % 1012,2 hPa 0,0 l/m 2,1 km/h (1 Bft) N-NO 24 0 min 0,000 mm 0,0 UV-I 0 W/m 4,0 C 4,7 C 4,8 km/h (1 Bft) 100,00 %
14.10.2015 00:50 4,7 C 95 % 1012,1 hPa 0,2 l/m 2,3 km/h (1 Bft) N-NO 13 0 min 0,000 mm 0,0 UV-I 0 W/m 4,0 C 4,7 C 6,4 km/h (2 Bft) 100,00 %
14.10.2015 00:52 4,7 C 95 % 1012,0 hPa 0,0 l/m 3,1 km/h (1 Bft) N 5 0 min 0,000 mm 0,0 UV-I 0 W/m 4,0 C 4,7 C 4,8 km/h (1 Bft) 96,23 %
14.10.2015 00:54 4,7 C 95 % 1012,1 hPa 0,0 l/m 3,0 km/h (1 Bft) N-NO 22 0 min 0,000 mm 0,0 UV-I 0 W/m 4,0 C 4,7 C 6,4 km/h (2 Bft) 98,00 %
14.10.2015 00:56 4,7 C 94 % 1012,1 hPa 0,0 l/m 2,9 km/h (1 Bft) N-NO 29 0 min 0,000 mm 0,0 UV-I 0 W/m 3,8 C 4,7 C 4,8 km/h (1 Bft) 100,00 %
14.10.2015 00:58 4,7 C 94 % 1012,0 hPa 0,2 l/m 3,1 km/h (1 Bft) N-NO 32 0 min 0,000 mm 0,0 UV-I 0 W/m 3,8 C 4,7 C 6,4 km/h (2 Bft) 98,11 %
14.10.2015 01:00 4,7 C 94 % 1012,1 hPa 0,0 l/m 3,1 km/h (1 Bft) N-NO 14 0 min 0,000 mm 0,0 UV-I 0 W/m 3,8 C 4,7 C 6,4 km/h (2 Bft) 100,00 %
14.10.2015 01:02 4,7 C 94 % 1012,0 hPa 0,0 l/m 2,9 km/h (1 Bft) NO 36 0 min 0,000 mm 0,0 UV-I 0 W/m 3,8 C 4,7 C 4,8 km/h (1 Bft) 100,00 %
14.10.2015 01:04 4,7 C 94 % 1011,9 hPa 0,0 l/m 3,0 km/h (1 Bft) N-NO 20 0 min 0,000 mm 0,0 UV-I 0 W/m 3,8 C 4,7 C 6,4 km/h (2 Bft) 100,00 %
14.10.2015 01:06 4,7 C 94 % 1011,8 hPa 0,0 l/m 4,5 km/h (1 Bft) N-NO 26 0 min 0,000 mm 0,0 UV-I 0 W/m 3,8 C 4,7 C 6,4 km/h (2 Bft) 98,00 %
14.10.2015 01:08 4,7 C 94 % 1011,7 hPa 0,2 l/m 3,9 km/h (1 Bft) N-NO 19 0 min 0,000 mm 0,0 UV-I 0 W/m 3,8 C 4,7 C 8,0 km/h (2 Bft) 100,00 %
14.10.2015 01:10 4,6 C 94 % 1011,8 hPa 0,2 l/m 3,4 km/h (1 Bft) N-NO 13 0 min 0,000 mm 0,0 UV-I 0 W/m 3,7 C 4,6 C 6,4 km/h (2 Bft) 100,00 %
14.10.2015 01:12 4,6 C 94 % 1011,8 hPa 0,2 l/m 3,5 km/h (1 Bft) N-NO 32 0 min 0,000 mm 0,0 UV-I 0 W/m 3,7 C 4,6 C 6,4 km/h (2 Bft) 100,00 %
14.10.2015 01:14 4,6 C 94 % 1011,9 hPa 0,2 l/m 2,0 km/h (1 Bft) N-NO 15 0 min 0,000 mm 0,0 UV-I 0 W/m 3,7 C 4,6 C 4,8 km/h (1 Bft) 100,00 %
14.10.2015 01:16 4,6 C 94 % 1012,1 hPa 0,2 l/m 2,0 km/h (1 Bft) N 5 0 min 0,000 mm 0,0 UV-I 0 W/m 3,7 C 4,6 C 3,2 km/h (1 Bft) 97,78 %
14.10.2015 01:18 4,6 C 94 % 1012,3 hPa 0,0 l/m 1,1 km/h (1 Bft) N-NW 347 0 min 0,000 mm 0,0 UV-I 0 W/m 3,7 C 4,6 C 1,6 km/h (1 Bft) 100,00 %
14.10.2015 01:20 4,6 C 94 % 1012,2 hPa 0,2 l/m 0,9 km/h (0 Bft) NW 323 0 min 0,000 mm 0,0 UV-I 0 W/m 3,7 C 4,6 C 3,2 km/h (1 Bft) 100,00 %
14.10.2015 01:22 4,6 C 94 % 1012,1 hPa 0,0 l/m 1,3 km/h (1 Bft) N 5 0 min 0,000 mm 0,0 UV-I 0 W/m 3,7 C 4,6 C 3,2 km/h (1 Bft) 100,00 %
14.10.2015 01:24 4,6 C 94 % 1012,1 hPa 0,2 l/m 1,3 km/h (1 Bft) N 5 0 min 0,000 mm 0,0 UV-I 0 W/m 3,7 C 4,6 C 3,2 km/h (1 Bft) 100,00 %
14.10.2015 01:26 4,6 C 94 % 1012,1 hPa 0,0 l/m 1,2 km/h (1 Bft) N 10 0 min 0,000 mm 0,0 UV-I 0 W/m 3,7 C 4,6 C 3,2 km/h (1 Bft) 97,87 %
14.10.2015 01:28 4,6 C 94 % 1012,0 hPa 0,0 l/m 2,5 km/h (1 Bft) N-NO 27 0 min 0,000 mm 0,0 UV-I 0 W/m 3,7 C 4,6 C 4,8 km/h (1 Bft) 100,00 %
14.10.2015 01:30 4,6 C 94 % 1012,0 hPa 0,0 l/m 2,7 km/h (1 Bft) N-NO 29 0 min 0,000 mm 0,0 UV-I 0 W/m 3,7 C 4,6 C 6,4 km/h (2 Bft) 100,00 %
14.10.2015 01:32 4,6 C 94 % 1012,0 hPa 0,2 l/m 2,8 km/h (1 Bft) N 11 0 min 0,000 mm 0,0 UV-I 0 W/m 3,7 C 4,6 C 6,4 km/h (2 Bft) 100,00 %
14.10.2015 01:34 4,6 C 94 % 1012,2 hPa 0,0 l/m 2,1 km/h (1 Bft) N-NW 342 0 min 0,000 mm 0,0 UV-I 0 W/m 3,7 C 4,6 C 3,2 km/h (1 Bft) 100,00 %
14.10.2015 01:36 4,6 C 94 % 1012,3 hPa 0,0 l/m 1,5 km/h (1 Bft) N 10 0 min 0,000 mm 0,0 UV-I 0 W/m 3,7 C 4,6 C 4,8 km/h (1 Bft) 100,00 %
14.10.2015 01:38 4,6 C 94 % 1012,4 hPa 0,0 l/m 0,4 km/h (0 Bft) N 10 0 min 0,000 mm 0,0 UV-I 0 W/m 3,7 C 4,6 C 1,6 km/h (1 Bft) 98,00 %
14.10.2015 01:40 4,6 C 95 % 1012,4 hPa 0,2 l/m 0,0 km/h (0 Bft) N 10 0 min 0,000 mm 0,0 UV-I 0 W/m 3,9 C 4,6 C 0,0 km/h (0 Bft) 100,00 %
14.10.2015 01:42 4,6 C 95 % 1012,4 hPa 0,0 l/m 0,2 km/h (0 Bft) N 10 0 min 0,000 mm 0,0 UV-I 0 W/m 3,9 C 4,6 C 1,6 km/h (1 Bft) 100,00 %
14.10.2015 01:44 4,6 C 95 % 1012,5 hPa 0,0 l/m 0,0 km/h (0 Bft) N 10 0 min 0,000 mm 0,0 UV-I 0 W/m 3,9 C 4,6 C 1,6 km/h (1 Bft) 100,00 %
14.10.2015 01:46 4,6 C 95 % 1012,4 hPa 0,0 l/m 0,2 km/h (0 Bft) N-NO 13 0 min 0,000 mm 0,0 UV-I 0 W/m 3,9 C 4,6 C 1,6 km/h (1 Bft) 97,87 %
14.10.2015 01:48 4,6 C 95 % 1012,5 hPa 0,0 l/m 0,0 km/h (0 Bft) N-NO 13 0 min 0,000 mm 0,0 UV-I 0 W/m 3,9 C 4,6 C 1,6 km/h (1 Bft) 100,00 %
14.10.2015 01:50 4,6 C 95 % 1012,6 hPa 0,0 l/m 0,6 km/h (0 Bft) W-NW 292 0 min 0,000 mm 0,0 UV-I 0 W/m 3,9 C 4,6 C 3,2 km/h (1 Bft) 97,87 %
14.10.2015 01:52 4,6 C 95 % 1012,6 hPa 0,0 l/m 0,7 km/h (0 Bft) W 266 0 min 0,000 mm 0,0 UV-I 0 W/m 3,9 C 4,6 C 3,2 km/h (1 Bft) 100,00 %
14.10.2015 01:54 4,7 C 95 % 1012,6 hPa 0,0 l/m 0,7 km/h (0 Bft) SW 215 0 min 0,000 mm 0,0 UV-I 0 W/m 4,0 C 4,7 C 1,6 km/h (1 Bft) 100,00 %
14.10.2015 01:56 4,7 C 95 % 1012,7 hPa 0,0 l/m 1,4 km/h (1 Bft) S 186 0 min 0,000 mm 0,0 UV-I 0 W/m 4,0 C 4,7 C 3,2 km/h (1 Bft) 100,00 %
14.10.2015 01:58 4,7 C 95 % 1012,7 hPa 0,0 l/m 0,4 km/h (0 Bft) S 189 0 min 0,000 mm 0,0 UV-I 0 W/m 4,0 C 4,7 C 1,6 km/h (1 Bft) 100,00 %
14.10.2015 02:00 4,7 C 95 % 1012,7 hPa 0,0 l/m 0,8 km/h (0 Bft) S 186 0 min 0,000 mm 0,0 UV-I 0 W/m 4,0 C 4,7 C 3,2 km/h (1 Bft) 100,00 %
14.10.2015 02:02 4,7 C 95 % 1012,7 hPa 0,0 l/m 1,4 km/h (1 Bft) S-SW 194 0 min 0,000 mm 0,0 UV-I 0 W/m 4,0 C 4,7 C 3,2 km/h (1 Bft) 100,00 %
14.10.2015 02:04 4,7 C 95 % 1012,7 hPa 0,0 l/m 1,2 km/h (1 Bft) S-SW 203 0 min 0,000 mm 0,0 UV-I 0 W/m 4,0 C 4,7 C 3,2 km/h (1 Bft) 97,87 %
14.10.2015 02:06 4,7 C 95 % 1012,8 hPa 0,0 l/m 0,6 km/h (0 Bft) S-SW 203 0 min 0,000 mm 0,0 UV-I 0 W/m 4,0 C 4,7 C 3,2 km/h (1 Bft) 100,00 %
14.10.2015 02:08 4,6 C 95 % 1012,8 hPa 0,0 l/m 0,8 km/h (0 Bft) S-SW 207 0 min 0,000 mm 0,0 UV-I 0 W/m 3,9 C 4,6 C 3,2 km/h (1 Bft) 100,00 %
14.10.2015 02:10 4,6 C 95 % 1012,9 hPa 0,0 l/m 2,4 km/h (1 Bft) W-SW 237 0 min 0,000 mm 0,0 UV-I 0 W/m 3,9 C 4,6 C 4,8 km/h (1 Bft) 98,00 %
14.10.2015 02:12 4,6 C 95 % 1012,9 hPa 0,0 l/m 3,3 km/h (1 Bft) W-SW 257 0 min 0,000 mm 0,0 UV-I 0 W/m 3,9 C 4,6 C 6,4 km/h (2 Bft) 100,00 %
14.10.2015 02:14 4,6 C 95 % 1013,0 hPa 0,0 l/m 1,8 km/h (1 Bft) SW 228 0 min 0,000 mm 0,0 UV-I 0 W/m 3,9 C 4,6 C 4,8 km/h (1 Bft) 100,00 %
14.10.2015 02:16 4,6 C 95 % 1013,0 hPa 0,0 l/m 3,2 km/h (1 Bft) W 278 0 min 0,000 mm 0,0 UV-I 0 W/m 3,9 C 4,6 C 6,4 km/h (2 Bft) 100,00 %
14.10.2015 02:18 4,6 C 95 % 1012,9 hPa 0,0 l/m 3,1 km/h (1 Bft) W 275 0 min 0,000 mm 0,0 UV-I 0 W/m 3,9 C 4,6 C 4,8 km/h (1 Bft) 100,00 %
14.10.2015 02:20 4,6 C 95 % 1013,0 hPa 0,0 l/m 1,6 km/h (1 Bft) W-SW 255 0 min 0,000 mm 0,0 UV-I 0 W/m 3,9 C 4,6 C 3,2 km/h (1 Bft) 98,00 %
14.10.2015 02:22 4,6 C 95 % 1013,0 hPa 0,0 l/m 1,1 km/h (1 Bft) W-SW 255 0 min 0,000 mm 0,0 UV-I 0 W/m 3,9 C 4,6 C 3,2 km/h (1 Bft) 100,00 %
14.10.2015 02:24 4,6 C 95 % 1013,0 hPa 0,0 l/m 2,3 km/h (1 Bft) W 269 0 min 0,000 mm 0,0 UV-I 0 W/m 3,9 C 4,6 C 3,2 km/h (1 Bft) 100,00 %
14.10.2015 02:26 4,6 C 95 % 1013,1 hPa 0,0 l/m 2,4 km/h (1 Bft) W 260 0 min 0,000 mm 0,0 UV-I 0 W/m 3,9 C 4,6 C 6,4 km/h (2 Bft) 100,00 %
14.10.2015 02:28 4,6 C 95 % 1013,1 hPa 0,0 l/m 1,8 km/h (1 Bft) W 271 0 min 0,000 mm 0,0 UV-I 0 W/m 3,9 C 4,6 C 3,2 km/h (1 Bft) 98,00 %
14.10.2015 02:30 4,5 C 95 % 1013,1 hPa 0,0 l/m 2,9 km/h (1 Bft) W-SW 246 0 min 0,000 mm 0,0 UV-I 0 W/m 3,8 C 4,5 C 6,4 km/h (2 Bft) 100,00 %
14.10.2015 02:32 4,5 C 95 % 1013,2 hPa 0,0 l/m 3,0 km/h (1 Bft) W 267 0 min 0,000 mm 0,0 UV-I 0 W/m 3,8 C 4,5 C 4,8 km/h (1 Bft) 100,00 %
14.10.2015 02:34 4,5 C 95 % 1013,3 hPa 0,0 l/m 3,3 km/h (1 Bft) W-SW 243 0 min 0,000 mm 0,0 UV-I 0 W/m 3,8 C 4,5 C 6,4 km/h (2 Bft) 100,00 %
14.10.2015 02:36 4,5 C 95 % 1013,2 hPa 0,0 l/m 3,5 km/h (1 Bft) W 267 0 min 0,000 mm 0,0 UV-I 0 W/m 3,8 C 4,5 C 6,4 km/h (2 Bft) 98,00 %
14.10.2015 02:38 4,5 C 95 % 1013,2 hPa 0,0 l/m 2,8 km/h (1 Bft) W-SW 255 0 min 0,000 mm 0,0 UV-I 0 W/m 3,8 C 4,5 C 4,8 km/h (1 Bft) 100,00 %
14.10.2015 02:40 4,5 C 95 % 1013,2 hPa 0,0 l/m 4,0 km/h (1 Bft) W 281 0 min 0,000 mm 0,0 UV-I 0 W/m 3,8 C 4,5 C 9,7 km/h (2 Bft) 100,00 %
14.10.2015 02:42 4,5 C 95 % 1013,3 hPa 0,0 l/m 3,4 km/h (1 Bft) W 276 0 min 0,000 mm 0,0 UV-I 0 W/m 3,8 C 4,5 C 4,8 km/h (1 Bft) 97,87 %
14.10.2015 02:44 4,5 C 95 % 1013,3 hPa 0,0 l/m 3,8 km/h (1 Bft) W 266 0 min 0,000 mm 0,0 UV-I 0 W/m 3,8 C 4,5 C 6,4 km/h (2 Bft) 100,00 %
14.10.2015 02:46 4,5 C 95 % 1013,3 hPa 0,0 l/m 3,5 km/h (1 Bft) W 263 0 min 0,000 mm 0,0 UV-I 0 W/m 3,8 C 4,5 C 4,8 km/h (1 Bft) 98,00 %
14.10.2015 02:48 4,5 C 95 % 1013,3 hPa 0,0 l/m 4,4 km/h (1 Bft) W-NW 282 0 min 0,000 mm 0,0 UV-I 0 W/m 3,8 C 4,5 C 8,0 km/h (2 Bft) 100,00 %
14.10.2015 02:50 4,5 C 95 % 1013,3 hPa 0,0 l/m 3,3 km/h (1 Bft) W 271 0 min 0,000 mm 0,0 UV-I 0 W/m 3,8 C 4,5 C 6,4 km/h (2 Bft) 97,73 %
14.10.2015 02:52 4,5 C 95 % 1013,3 hPa 0,0 l/m 5,2 km/h (1 Bft) W-SW 242 0 min 0,000 mm 0,0 UV-I 0 W/m 3,8 C 4,5 C 9,7 km/h (2 Bft) 94,74 %
14.10.2015 02:54 4,5 C 95 % 1013,4 hPa 0,0 l/m 3,5 km/h (1 Bft) W-SW 239 0 min 0,000 mm 0,0 UV-I 0 W/m 3,8 C 4,5 C 6,4 km/h (2 Bft) 100,00 %
14.10.2015 02:56 4,5 C 95 % 1013,4 hPa 0,0 l/m 3,5 km/h (1 Bft) W 278 0 min 0,000 mm 0,0 UV-I 0 W/m 3,8 C 4,5 C 6,4 km/h (2 Bft) 100,00 %
14.10.2015 02:58 4,5 C 95 % 1013,4 hPa 0,0 l/m 3,1 km/h (1 Bft) W-SW 242 0 min 0,000 mm 0,0 UV-I 0 W/m 3,8 C 4,5 C 4,8 km/h (1 Bft) 100,00 %
14.10.2015 03:00 4,5 C 95 % 1013,4 hPa 0,0 l/m 3,8 km/h (1 Bft) W 261 0 min 0,000 mm 0,0 UV-I 0 W/m 3,8 C 4,5 C 6,4 km/h (2 Bft) 97,87 %
14.10.2015 03:02 4,5 C 95 % 1013,4 hPa 0,0 l/m 3,9 km/h (1 Bft) SW 223 0 min 0,000 mm 0,0 UV-I 0 W/m 3,8 C 4,5 C 6,4 km/h (2 Bft) 100,00 %
14.10.2015 03:04 4,5 C 95 % 1013,5 hPa 0,0 l/m 5,4 km/h (1 Bft) W-SW 241 0 min 0,000 mm 0,0 UV-I 0 W/m 3,8 C 4,5 C 9,7 km/h (2 Bft) 100,00 %
14.10.2015 03:06 4,5 C 95 % 1013,5 hPa 0,0 l/m 5,1 km/h (1 Bft) W-NW 296 0 min 0,000 mm 0,0 UV-I 0 W/m 3,8 C 4,5 C 8,0 km/h (2 Bft) 100,00 %
14.10.2015 03:08 4,5 C 95 % 1013,5 hPa 0,0 l/m 4,2 km/h (1 Bft) W 259 0 min 0,000 mm 0,0 UV-I 0 W/m 3,8 C 4,5 C 6,4 km/h (2 Bft) 100,00 %
14.10.2015 03:10 4,5 C 95 % 1013,6 hPa 0,0 l/m 5,2 km/h (1 Bft) W 280 0 min 0,000 mm 0,0 UV-I 0 W/m 3,8 C 4,5 C 9,7 km/h (2 Bft) 100,00 %
14.10.2015 03:12 4,5 C 95 % 1013,6 hPa 0,0 l/m 4,2 km/h (1 Bft) W 260 0 min 0,000 mm 0,0 UV-I 0 W/m 3,8 C 4,5 C 6,4 km/h (2 Bft) 100,00 %
14.10.2015 03:14 4,5 C 95 % 1013,6 hPa 0,0 l/m 6,0 km/h (2 Bft) W 277 0 min 0,000 mm 0,0 UV-I 0 W/m 3,8 C 4,5 C 11,3 km/h (2 Bft) 100,00 %
14.10.2015 03:16 4,5 C 95 % 1013,7 hPa 0,0 l/m 4,0 km/h (1 Bft) W-SW 247 0 min 0,000 mm 0,0 UV-I 0 W/m 3,8 C 4,5 C 8,0 km/h (2 Bft) 100,00 %
14.10.2015 03:18 4,5 C 95 % 1013,6 hPa 0,0 l/m 5,3 km/h (1 Bft) W-NW 282 0 min 0,000 mm 0,0 UV-I 0 W/m 3,8 C 4,5 C 11,3 km/h (2 Bft) 100,00 %
14.10.2015 03:20 4,5 C 95 % 1013,6 hPa 0,0 l/m 6,3 km/h (2 Bft) W-SW 237 0 min 0,000 mm 0,0 UV-I 0 W/m 3,8 C 4,5 C 11,3 km/h (2 Bft) 100,00 %
14.10.2015 03:22 4,5 C 95 % 1013,7 hPa 0,0 l/m 5,8 km/h (2 Bft) W 260 0 min 0,000 mm 0,0 UV-I 0 W/m 3,8 C 4,5 C 11,3 km/h (2 Bft) 100,00 %
14.10.2015 03:24 4,4 C 95 % 1013,7 hPa 0,0 l/m 6,3 km/h (2 Bft) W 262 0 min 0,000 mm 0,0 UV-I 0 W/m 3,7 C 4,4 C 11,3 km/h (2 Bft) 100,00 %
14.10.2015 03:26 4,5 C 95 % 1013,7 hPa 0,0 l/m 5,2 km/h (1 Bft) NW 324 0 min 0,000 mm 0,0 UV-I 0 W/m 3,8 C 4,5 C 9,7 km/h (2 Bft) 100,00 %
14.10.2015 03:28 4,4 C 95 % 1013,8 hPa 0,0 l/m 4,3 km/h (1 Bft) W 271 0 min 0,000 mm 0,0 UV-I 0 W/m 3,7 C 4,4 C 9,7 km/h (2 Bft) 100,00 %
14.10.2015 03:30 4,4 C 95 % 1013,7 hPa 0,0 l/m 5,2 km/h (1 Bft) W 271 0 min 0,000 mm 0,0 UV-I 0 W/m 3,7 C 4,4 C 11,3 km/h (2 Bft) 100,00 %
14.10.2015 03:32 4,4 C 95 % 1013,7 hPa 0,0 l/m 4,4 km/h (1 Bft) NW 309 0 min 0,000 mm 0,0 UV-I 0 W/m 3,7 C 4,4 C 8,0 km/h (2 Bft) 100,00 %
14.10.2015 03:34 4,5 C 95 % 1013,8 hPa 0,0 l/m 4,8 km/h (1 Bft) W 272 0 min 0,000 mm 0,0 UV-I 0 W/m 3,8 C 4,5 C 8,0 km/h (2 Bft) 100,00 %
14.10.2015 03:36 4,4 C 95 % 1013,9 hPa 0,0 l/m 4,6 km/h (1 Bft) SW 235 0 min 0,000 mm 0,0 UV-I 0 W/m 3,7 C 4,4 C 11,3 km/h (2 Bft) 98,11 %
14.10.2015 03:40 4,5 C 95 % 1013,8 hPa 0,0 l/m 3,2 km/h (1 Bft) W 270 0 min 0,000 mm 0,0 UV-I 0 W/m 3,8 C 4,5 C 11,3 km/h (2 Bft) 100,00 %
14.10.2015 03:45 4,5 C 95 % 1013,9 hPa 0,0 l/m 3,2 km/h (1 Bft) W 270 0 min 0,000 mm 0,0 UV-I 0 W/m 3,8 C 4,5 C 8,0 km/h (2 Bft) 100,00 %
14.10.2015 03:50 4,5 C 95 % 1013,8 hPa 0,0 l/m 3,2 km/h (1 Bft) W 270 0 min 0,000 mm 0,0 UV-I 0 W/m 3,8 C 4,5 C 6,4 km/h (2 Bft) 100,00 %
14.10.2015 03:55 4,5 C 95 % 1013,9 hPa 0,0 l/m 3,2 km/h (1 Bft) W-SW 247 0 min 0,000 mm 0,0 UV-I 0 W/m 3,8 C 4,5 C 6,4 km/h (2 Bft) 100,00 %
14.10.2015 04:00 4,5 C 95 % 1014,0 hPa 0,0 l/m 3,2 km/h (1 Bft) W 270 0 min 0,000 mm 0,0 UV-I 0 W/m 3,8 C 4,5 C 8,0 km/h (2 Bft) 100,00 %
14.10.2015 04:05 4,6 C 95 % 1014,0 hPa 0,0 l/m 3,2 km/h (1 Bft) W-SW 247 0 min 0,000 mm 0,0 UV-I 0 W/m 3,9 C 4,6 C 8,0 km/h (2 Bft) 100,00 %
14.10.2015 04:10 4,6 C 95 % 1014,1 hPa 0,0 l/m 4,8 km/h (1 Bft) W 270 0 min 0,000 mm 0,0 UV-I 0 W/m 3,9 C 4,6 C 9,7 km/h (2 Bft) 100,00 %
14.10.2015 04:15 4,6 C 95 % 1014,1 hPa 0,0 l/m 4,8 km/h (1 Bft) W 270 0 min 0,000 mm 0,0 UV-I 0 W/m 3,9 C 4,6 C 9,7 km/h (2 Bft) 100,00 %
14.10.2015 04:20 4,6 C 95 % 1014,1 hPa 0,0 l/m 4,8 km/h (1 Bft) W 270 0 min 0,000 mm 0,0 UV-I 0 W/m 3,9 C 4,6 C 9,7 km/h (2 Bft) 100,00 %
14.10.2015 04:25 4,6 C 96 % 1014,1 hPa 0,0 l/m 3,2 km/h (1 Bft) W-SW 247 0 min 0,000 mm 0,0 UV-I 0 W/m 4,0 C 4,6 C 11,3 km/h (2 Bft) 100,00 %
14.10.2015 04:30 4,6 C 96 % 1014,2 hPa 0,0 l/m 4,8 km/h (1 Bft) W 270 0 min 0,000 mm 0,0 UV-I 0 W/m 4,0 C 4,6 C 11,3 km/h (2 Bft) 100,00 %
14.10.2015 04:35 4,6 C 96 % 1014,1 hPa 0,0 l/m 3,2 km/h (1 Bft) W 270 0 min 0,000 mm 0,0 UV-I 0 W/m 4,0 C 4,6 C 9,7 km/h (2 Bft) 100,00 %
14.10.2015 04:40 4,6 C 96 % 1014,2 hPa 0,0 l/m 3,2 km/h (1 Bft) W 270 0 min 0,000 mm 0,0 UV-I 0 W/m 4,0 C 4,6 C 9,7 km/h (2 Bft) 100,00 %
14.10.2015 04:45 4,6 C 96 % 1014,3 hPa 0,0 l/m 3,2 km/h (1 Bft) W 270 0 min 0,000 mm 0,0 UV-I 0 W/m 4,0 C 4,6 C 4,8 km/h (1 Bft) 100,00 %
14.10.2015 04:50 4,7 C 96 % 1014,4 hPa 0,0 l/m 3,4 km/h (1 Bft) W-NW 282 0 min 0,000 mm 0,0 UV-I 0 W/m 4,1 C 4,7 C 4,8 km/h (1 Bft) 100,00 %
14.10.2015 04:52 4,7 C 96 % 1014,4 hPa 0,0 l/m 2,4 km/h (1 Bft) W 274 0 min 0,000 mm 0,0 UV-I 0 W/m 4,1 C 4,7 C 4,8 km/h (1 Bft) 96,00 %
14.10.2015 04:54 4,7 C 96 % 1014,5 hPa 0,0 l/m 2,9 km/h (1 Bft) W 277 0 min 0,000 mm 0,0 UV-I 0 W/m 4,1 C 4,7 C 4,8 km/h (1 Bft) 98,00 %
14.10.2015 04:56 4,7 C 96 % 1014,4 hPa 0,0 l/m 2,8 km/h (1 Bft) NW 307 0 min 0,000 mm 0,0 UV-I 0 W/m 4,1 C 4,7 C 6,4 km/h (2 Bft) 100,00 %
14.10.2015 04:58 4,7 C 96 % 1014,4 hPa 0,0 l/m 3,9 km/h (1 Bft) SW 225 0 min 0,000 mm 0,0 UV-I 0 W/m 4,1 C 4,7 C 6,4 km/h (2 Bft) 100,00 %
14.10.2015 05:00 4,7 C 96 % 1014,4 hPa 0,0 l/m 4,0 km/h (1 Bft) SW 232 0 min 0,000 mm 0,0 UV-I 0 W/m 4,1 C 4,7 C 6,4 km/h (2 Bft) 97,37 %
14.10.2015 05:02 4,8 C 96 % 1014,4 hPa 0,0 l/m 4,6 km/h (1 Bft) SW 235 0 min 0,000 mm 0,0 UV-I 0 W/m 4,2 C 4,8 C 6,4 km/h (2 Bft) 97,87 %
14.10.2015 05:04 4,8 C 96 % 1014,5 hPa 0,0 l/m 4,6 km/h (1 Bft) W-SW 237 0 min 0,000 mm 0,0 UV-I 0 W/m 4,2 C 4,8 C 6,4 km/h (2 Bft) 100,00 %
14.10.2015 05:06 4,8 C 96 % 1014,4 hPa 0,0 l/m 4,4 km/h (1 Bft) S-SW 212 0 min 0,000 mm 0,0 UV-I 0 W/m 4,2 C 4,8 C 6,4 km/h (2 Bft) 100,00 %
14.10.2015 05:08 4,8 C 96 % 1014,4 hPa 0,0 l/m 3,8 km/h (1 Bft) W-SW 246 0 min 0,000 mm 0,0 UV-I 0 W/m 4,2 C 4,8 C 6,4 km/h (2 Bft) 100,00 %
14.10.2015 05:10 4,8 C 96 % 1014,4 hPa 0,0 l/m 4,2 km/h (1 Bft) SW 234 0 min 0,000 mm 0,0 UV-I 0 W/m 4,2 C 4,8 C 6,4 km/h (2 Bft) 100,00 %
14.10.2015 05:12 4,8 C 96 % 1014,5 hPa 0,0 l/m 3,9 km/h (1 Bft) W-SW 248 0 min 0,000 mm 0,0 UV-I 0 W/m 4,2 C 4,8 C 6,4 km/h (2 Bft) 97,44 %
14.10.2015 05:14 4,8 C 96 % 1014,4 hPa 0,0 l/m 5,3 km/h (1 Bft) SW 221 0 min 0,000 mm 0,0 UV-I 0 W/m 4,2 C 4,8 C 8,0 km/h (2 Bft) 100,00 %
14.10.2015 05:16 4,8 C 96 % 1014,4 hPa 0,0 l/m 3,7 km/h (1 Bft) W-SW 252 0 min 0,000 mm 0,0 UV-I 0 W/m 4,2 C 4,8 C 4,8 km/h (1 Bft) 98,00 %
14.10.2015 05:18 4,9 C 96 % 1014,4 hPa 0,0 l/m 3,0 km/h (1 Bft) W-SW 246 0 min 0,000 mm 0,0 UV-I 0 W/m 4,3 C 4,9 C 6,4 km/h (2 Bft) 97,87 %
14.10.2015 05:20 4,9 C 96 % 1014,4 hPa 0,0 l/m 4,7 km/h (1 Bft) S-SW 210 0 min 0,000 mm 0,0 UV-I 0 W/m 4,3 C 4,9 C 8,0 km/h (2 Bft) 100,00 %
14.10.2015 05:22 4,9 C 96 % 1014,4 hPa 0,0 l/m 5,2 km/h (1 Bft) W 262 0 min 0,000 mm 0,0 UV-I 0 W/m 4,3 C 4,9 C 11,3 km/h (2 Bft) 100,00 %
14.10.2015 05:24 4,9 C 95 % 1014,5 hPa 0,0 l/m 6,6 km/h (2 Bft) SW 221 0 min 0,000 mm 0,0 UV-I 0 W/m 4,2 C 4,7 C 12,9 km/h (3 Bft) 100,00 %
14.10.2015 05:26 4,9 C 95 % 1014,5 hPa 0,0 l/m 4,8 km/h (1 Bft) S-SW 211 0 min 0,000 mm 0,0 UV-I 0 W/m 4,2 C 4,9 C 8,0 km/h (2 Bft) 98,00 %
14.10.2015 05:28 4,9 C 95 % 1014,5 hPa 0,0 l/m 7,1 km/h (2 Bft) S-SW 205 0 min 0,000 mm 0,0 UV-I 0 W/m 4,2 C 4,3 C 11,3 km/h (2 Bft) 100,00 %
14.10.2015 05:30 4,9 C 95 % 1014,5 hPa 0,0 l/m 5,3 km/h (1 Bft) S-SW 206 0 min 0,000 mm 0,0 UV-I 0 W/m 4,2 C 4,9 C 9,7 km/h (2 Bft) 100,00 %
14.10.2015 05:32 4,9 C 95 % 1014,5 hPa 0,0 l/m 4,0 km/h (1 Bft) W 264 0 min 0,000 mm 0,0 UV-I 0 W/m 4,2 C 4,9 C 6,4 km/h (2 Bft) 97,37 %
14.10.2015 05:34 4,9 C 95 % 1014,5 hPa 0,0 l/m 3,8 km/h (1 Bft) W-SW 246 0 min 0,000 mm 0,0 UV-I 0 W/m 4,2 C 4,9 C 9,7 km/h (2 Bft) 98,00 %
14.10.2015 05:36 4,9 C 95 % 1014,5 hPa 0,0 l/m 5,3 km/h (1 Bft) S-SW 211 0 min 0,000 mm 0,0 UV-I 0 W/m 4,2 C 4,9 C 9,7 km/h (2 Bft) 100,00 %
14.10.2015 05:38 4,9 C 95 % 1014,4 hPa 0,0 l/m 5,6 km/h (1 Bft) W-NW 282 0 min 0,000 mm 0,0 UV-I 0 W/m 4,2 C 4,9 C 11,3 km/h (2 Bft) 100,00 %
14.10.2015 05:40 4,9 C 95 % 1014,5 hPa 0,0 l/m 5,8 km/h (2 Bft) W-SW 248 0 min 0,000 mm 0,0 UV-I 0 W/m 4,2 C 4,9 C 9,7 km/h (2 Bft) 95,83 %
14.10.2015 05:42 4,9 C 95 % 1014,5 hPa 0,0 l/m 4,5 km/h (1 Bft) SW 220 0 min 0,000 mm 0,0 UV-I 0 W/m 4,2 C 4,9 C 9,7 km/h (2 Bft) 100,00 %
14.10.2015 05:44 4,9 C 95 % 1014,5 hPa 0,2 l/m 6,0 km/h (2 Bft) SW 219 0 min 0,000 mm 0,0 UV-I 0 W/m 4,2 C 4,9 C 9,7 km/h (2 Bft) 100,00 %
14.10.2015 05:46 4,9 C 95 % 1014,6 hPa 0,0 l/m 5,3 km/h (1 Bft) SW 219 0 min 0,000 mm 0,0 UV-I 0 W/m 4,2 C 4,9 C 8,0 km/h (2 Bft) 98,44 %
14.10.2015 05:48 4,9 C 95 % 1014,6 hPa 0,0 l/m 7,0 km/h (2 Bft) S-SW 207 0 min 0,000 mm 0,0 UV-I 0 W/m 4,2 C 4,4 C 12,9 km/h (3 Bft) 100,00 %
14.10.2015 05:50 4,9 C 95 % 1014,6 hPa 0,0 l/m 5,2 km/h (1 Bft) W-SW 239 0 min 0,000 mm 0,0 UV-I 0 W/m 4,2 C 4,9 C 12,9 km/h (3 Bft) 98,00 %
14.10.2015 05:52 4,9 C 95 % 1014,7 hPa 0,0 l/m 4,4 km/h (1 Bft) SW 230 0 min 0,000 mm 0,0 UV-I 0 W/m 4,2 C 4,9 C 6,4 km/h (2 Bft) 100,00 %
14.10.2015 05:54 4,9 C 95 % 1014,8 hPa 0,0 l/m 9,4 km/h (2 Bft) S-SW 194 0 min 0,000 mm 0,0 UV-I 0 W/m 4,2 C 2,4 C 14,5 km/h (3 Bft) 100,00 %
14.10.2015 05:56 4,9 C 95 % 1014,8 hPa 0,0 l/m 7,2 km/h (2 Bft) W-SW 242 0 min 0,000 mm 0,0 UV-I 0 W/m 4,2 C 4,2 C 12,9 km/h (3 Bft) 100,00 %
14.10.2015 05:58 4,9 C 95 % 1014,8 hPa 0,2 l/m 6,4 km/h (2 Bft) SW 232 0 min 0,000 mm 0,0 UV-I 0 W/m 4,2 C 4,9 C 9,7 km/h (2 Bft) 100,00 %
14.10.2015 06:00 4,9 C 95 % 1014,8 hPa 0,0 l/m 6,0 km/h (2 Bft) S-SW 208 0 min 0,000 mm 0,0 UV-I 0 W/m 4,2 C 4,9 C 11,3 km/h (2 Bft) 100,00 %
14.10.2015 06:02 4,9 C 95 % 1014,8 hPa 0,0 l/m 6,7 km/h (2 Bft) SW 218 0 min 0,000 mm 0,0 UV-I 0 W/m 4,2 C 4,7 C 11,3 km/h (2 Bft) 100,00 %
14.10.2015 06:04 4,9 C 95 % 1014,8 hPa 0,0 l/m 7,1 km/h (2 Bft) SW 219 0 min 0,000 mm 0,0 UV-I 0 W/m 4,2 C 4,3 C 14,5 km/h (3 Bft) 100,00 %
14.10.2015 06:06 4,9 C 95 % 1014,8 hPa 0,0 l/m 8,8 km/h (2 Bft) SW 214 0 min 0,000 mm 0,0 UV-I 0 W/m 4,2 C 2,9 C 14,5 km/h (3 Bft) 97,37 %
14.10.2015 06:08 4,9 C 95 % 1014,8 hPa 0,0 l/m 5,7 km/h (1 Bft) W-SW 242 0 min 0,000 mm 0,0 UV-I 0 W/m 4,2 C 4,9 C 9,7 km/h (2 Bft) 100,00 %
14.10.2015 06:10 4,9 C 95 % 1014,8 hPa 0,0 l/m 8,8 km/h (2 Bft) W-SW 244 0 min 0,000 mm 0,0 UV-I 0 W/m 4,2 C 2,9 C 19,3 km/h (3 Bft) 100,00 %
14.10.2015 06:12 5,0 C 95 % 1014,8 hPa 0,0 l/m 6,6 km/h (2 Bft) SW 235 0 min 0,000 mm 0,0 UV-I 0 W/m 4,3 C 4,8 C 9,7 km/h (2 Bft) 97,37 %
14.10.2015 06:14 5,0 C 95 % 1014,7 hPa 0,0 l/m 5,8 km/h (2 Bft) S 184 0 min 0,000 mm 0,0 UV-I 0 W/m 4,3 C 5,0 C 9,7 km/h (2 Bft) 98,00 %
14.10.2015 06:16 5,0 C 95 % 1014,6 hPa 0,0 l/m 5,9 km/h (2 Bft) W 269 0 min 0,000 mm 0,0 UV-I 0 W/m 4,3 C 5,0 C 9,7 km/h (2 Bft) 100,00 %
14.10.2015 06:18 5,1 C 95 % 1014,6 hPa 0,0 l/m 4,2 km/h (1 Bft) S-SW 211 0 min 0,000 mm 0,0 UV-I 0 W/m 4,4 C 5,1 C 8,0 km/h (2 Bft) 98,11 %
14.10.2015 06:20 5,1 C 95 % 1014,6 hPa 0,0 l/m 5,6 km/h (1 Bft) W 259 0 min 0,000 mm 0,0 UV-I 0 W/m 4,4 C 5,1 C 9,7 km/h (2 Bft) 100,00 %
14.10.2015 06:22 5,1 C 95 % 1014,6 hPa 0,0 l/m 6,0 km/h (2 Bft) SW 217 0 min 0,000 mm 0,0 UV-I 0 W/m 4,4 C 5,1 C 9,7 km/h (2 Bft) 100,00 %
14.10.2015 06:24 5,1 C 95 % 1014,5 hPa 0,0 l/m 6,8 km/h (2 Bft) SW 227 0 min 0,000 mm 0,0 UV-I 0 W/m 4,4 C 4,8 C 12,9 km/h (3 Bft) 100,00 %
14.10.2015 06:26 5,1 C 95 % 1014,6 hPa 0,0 l/m 5,3 km/h (1 Bft) SW 219 0 min 0,000 mm 0,0 UV-I 0 W/m 4,4 C 5,1 C 9,7 km/h (2 Bft) 100,00 %
14.10.2015 06:28 5,1 C 95 % 1014,6 hPa 0,0 l/m 6,5 km/h (2 Bft) S-SW 198 0 min 0,000 mm 0,0 UV-I 0 W/m 4,4 C 5,0 C 9,7 km/h (2 Bft) 100,00 %
14.10.2015 06:30 5,1 C 94 % 1014,6 hPa 0,0 l/m 5,9 km/h (2 Bft) S-SW 208 0 min 0,000 mm 0,0 UV-I 0 W/m 4,2 C 5,1 C 8,0 km/h (2 Bft) 100,00 %
14.10.2015 06:32 5,1 C 94 % 1014,6 hPa 0,0 l/m 7,0 km/h (2 Bft) SW 231 0 min 0,000 mm 0,0 UV-I 0 W/m 4,2 C 4,6 C 12,9 km/h (3 Bft) 100,00 %
14.10.2015 06:34 5,1 C 94 % 1014,6 hPa 0,0 l/m 5,8 km/h (2 Bft) SW 218 0 min 0,000 mm 0,0 UV-I 0 W/m 4,2 C 5,1 C 11,3 km/h (2 Bft) 98,00 %
14.10.2015 06:36 5,1 C 94 % 1014,7 hPa 0,0 l/m 8,7 km/h (2 Bft) W-SW 242 0 min 0,000 mm 0,0 UV-I 0 W/m 4,2 C 3,1 C 12,9 km/h (3 Bft) 100,00 %
14.10.2015 06:38 5,1 C 94 % 1014,7 hPa 0,0 l/m 7,1 km/h (2 Bft) S-SW 194 0 min 0,000 mm 0,0 UV-I 0 W/m 4,2 C 4,5 C 12,9 km/h (3 Bft) 100,00 %
14.10.2015 06:40 5,2 C 94 % 1014,6 hPa 0,0 l/m 5,4 km/h (1 Bft) S 190 0 min 0,000 mm 0,0 UV-I 0 W/m 4,3 C 5,2 C 11,3 km/h (2 Bft) 98,00 %
14.10.2015 06:42 5,2 C 94 % 1014,6 hPa 0,0 l/m 9,6 km/h (2 Bft) S-SW 206 0 min 0,000 mm 0,0 UV-I 0 W/m 4,3 C 2,6 C 16,1 km/h (3 Bft) 100,00 %
14.10.2015 06:44 5,2 C 94 % 1014,7 hPa 0,0 l/m 6,8 km/h (2 Bft) W-NW 284 0 min 0,000 mm 0,0 UV-I 0 W/m 4,3 C 4,9 C 12,9 km/h (3 Bft) 100,00 %
14.10.2015 06:46 5,2 C 94 % 1014,7 hPa 0,0 l/m 7,6 km/h (2 Bft) SW 218 0 min 0,000 mm 0,0 UV-I 0 W/m 4,3 C 4,1 C 12,9 km/h (3 Bft) 100,00 %
14.10.2015 06:48 5,2 C 94 % 1014,7 hPa 0,0 l/m 9,4 km/h (2 Bft) SW 233 0 min 0,000 mm 0,0 UV-I 0 W/m 4,3 C 2,7 C 12,9 km/h (3 Bft) 100,00 %
14.10.2015 06:52 5,2 C 94 % 1014,7 hPa 0,0 l/m 4,3 km/h (1 Bft) S-SW 199 0 min 0,000 mm 0,0 UV-I 0 W/m 4,3 C 5,2 C 6,4 km/h (2 Bft) 100,00 %
14.10.2015 06:54 5,2 C 94 % 1014,7 hPa 0,0 l/m 7,6 km/h (2 Bft) SW 224 0 min 0,000 mm 0,0 UV-I 0 W/m 4,3 C 4,1 C 16,1 km/h (3 Bft) 98,00 %
14.10.2015 06:56 5,2 C 94 % 1014,7 hPa 0,0 l/m 8,9 km/h (2 Bft) SW 216 0 min 0,000 mm 0,0 UV-I 0 W/m 4,3 C 3,1 C 17,7 km/h (3 Bft) 98,00 %
14.10.2015 06:58 5,2 C 94 % 1014,7 hPa 0,0 l/m 6,3 km/h (2 Bft) SW 219 0 min 0,000 mm 0,0 UV-I 0 W/m 4,3 C 5,2 C 11,3 km/h (2 Bft) 100,00 %
14.10.2015 07:00 5,2 C 94 % 1014,7 hPa 0,0 l/m 6,5 km/h (2 Bft) SW 232 0 min 0,000 mm 0,0 UV-I 0 W/m 4,3 C 5,1 C 9,7 km/h (2 Bft) 100,00 %
14.10.2015 07:02 5,2 C 94 % 1014,7 hPa 0,0 l/m 6,0 km/h (2 Bft) W-SW 257 0 min 0,000 mm 0,0 UV-I 0 W/m 4,3 C 5,2 C 9,7 km/h (2 Bft) 100,00 %
14.10.2015 07:04 5,2 C 94 % 1014,7 hPa 0,0 l/m 6,2 km/h (2 Bft) SW 221 0 min 0,000 mm 0,0 UV-I 0 W/m 4,3 C 5,2 C 9,7 km/h (2 Bft) 100,00 %
14.10.2015 07:06 5,2 C 94 % 1014,6 hPa 0,0 l/m 4,2 km/h (1 Bft) S-SW 212 0 min 0,000 mm 0,0 UV-I 0 W/m 4,3 C 5,2 C 8,0 km/h (2 Bft) 97,87 %
14.10.2015 07:08 5,2 C 94 % 1014,6 hPa 0,0 l/m 6,0 km/h (2 Bft) S-SW 204 0 min 0,000 mm 0,0 UV-I 0 W/m 4,3 C 5,2 C 9,7 km/h (2 Bft) 100,00 %
14.10.2015 07:10 5,2 C 94 % 1014,7 hPa 0,2 l/m 8,4 km/h (2 Bft) S-SW 211 0 min 0,000 mm 0,0 UV-I 0 W/m 4,3 C 3,5 C 12,9 km/h (3 Bft) 100,00 %
14.10.2015 07:12 5,2 C 94 % 1014,8 hPa 0,0 l/m 5,8 km/h (2 Bft) S-SW 207 0 min 0,000 mm 0,0 UV-I 0 W/m 4,3 C 5,2 C 9,7 km/h (2 Bft) 97,87 %
14.10.2015 07:14 5,3 C 94 % 1014,8 hPa 0,0 l/m 6,4 km/h (2 Bft) SW 218 0 min 0,000 mm 0,0 UV-I 0 W/m 4,4 C 5,3 C 11,3 km/h (2 Bft) 100,00 %
14.10.2015 07:16 5,3 C 94 % 1014,8 hPa 0,0 l/m 3,7 km/h (1 Bft) SW 228 0 min 0,000 mm 0,0 UV-I 0 W/m 4,4 C 5,3 C 8,0 km/h (2 Bft) 100,00 %
14.10.2015 07:18 5,3 C 94 % 1014,8 hPa 0,0 l/m 6,5 km/h (2 Bft) W 266 0 min 0,000 mm 0,0 UV-I 0 W/m 4,4 C 5,2 C 9,7 km/h (2 Bft) 100,00 %
14.10.2015 07:20 5,3 C 94 % 1014,8 hPa 0,0 l/m 4,5 km/h (1 Bft) SW 231 0 min 0,000 mm 0,0 UV-I 0 W/m 4,4 C 5,3 C 11,3 km/h (2 Bft) 100,00 %
14.10.2015 07:22 5,3 C 94 % 1014,8 hPa 0,0 l/m 5,9 km/h (2 Bft) SW 214 0 min 0,000 mm 0,0 UV-I 0 W/m 4,4 C 5,3 C 9,7 km/h (2 Bft) 100,00 %
14.10.2015 07:24 5,3 C 94 % 1014,9 hPa 0,0 l/m 6,4 km/h (2 Bft) SW 216 0 min 0,000 mm 0,0 UV-I 0 W/m 4,4 C 5,3 C 12,9 km/h (3 Bft) 100,00 %
14.10.2015 07:26 5,4 C 94 % 1014,9 hPa 0,0 l/m 6,2 km/h (2 Bft) SW 222 0 min 0,000 mm 0,0 UV-I 0 W/m 4,5 C 5,4 C 8,0 km/h (2 Bft) 100,00 %
14.10.2015 07:28 5,4 C 94 % 1014,9 hPa 0,0 l/m 4,6 km/h (1 Bft) SW 232 0 min 0,000 mm 0,0 UV-I 0 W/m 4,5 C 5,4 C 8,0 km/h (2 Bft) 100,00 %
14.10.2015 07:30 5,4 C 94 % 1014,9 hPa 0,0 l/m 4,6 km/h (1 Bft) S-SW 205 0 min 0,000 mm 0,0 UV-I 0 W/m 4,5 C 5,4 C 8,0 km/h (2 Bft) 98,11 %
14.10.2015 07:32 5,4 C 94 % 1014,9 hPa 0,0 l/m 4,5 km/h (1 Bft) S-SW 202 0 min 0,000 mm 0,0 UV-I 3 W/m 4,5 C 5,4 C 8,0 km/h (2 Bft) 100,00 %
14.10.2015 07:34 5,4 C 94 % 1014,9 hPa 0,0 l/m 5,7 km/h (1 Bft) S-SW 205 0 min 0,000 mm 0,0 UV-I 5 W/m 4,5 C 5,4 C 11,3 km/h (2 Bft) 98,00 %
14.10.2015 07:36 5,4 C 94 % 1014,9 hPa 0,0 l/m 5,2 km/h (1 Bft) W-NW 296 0 min 0,000 mm 0,0 UV-I 5 W/m 4,5 C 5,4 C 11,3 km/h (2 Bft) 97,87 %
14.10.2015 07:38 5,4 C 94 % 1015,0 hPa 0,0 l/m 5,6 km/h (1 Bft) S-SW 213 0 min 0,000 mm 0,0 UV-I 7 W/m 4,5 C 5,4 C 8,0 km/h (2 Bft) 100,00 %
14.10.2015 07:40 5,4 C 94 % 1015,0 hPa 0,0 l/m 5,9 km/h (2 Bft) SW 233 0 min 0,000 mm 0,0 UV-I 7 W/m 4,5 C 5,4 C 11,3 km/h (2 Bft) 97,22 %
14.10.2015 07:42 5,4 C 94 % 1015,0 hPa 0,0 l/m 4,0 km/h (1 Bft) S-SW 213 0 min 0,000 mm 0,0 UV-I 7 W/m 4,5 C 5,4 C 8,0 km/h (2 Bft) 98,11 %
14.10.2015 07:44 5,4 C 94 % 1015,0 hPa 0,0 l/m 5,0 km/h (1 Bft) SW 214 0 min 0,000 mm 0,0 UV-I 9 W/m 4,5 C 5,4 C 9,7 km/h (2 Bft) 100,00 %
14.10.2015 07:46 5,4 C 94 % 1015,1 hPa 0,0 l/m 4,4 km/h (1 Bft) SW 225 0 min 0,000 mm 0,0 UV-I 9 W/m 4,5 C 5,4 C 9,7 km/h (2 Bft) 100,00 %
14.10.2015 07:48 5,5 C 94 % 1015,1 hPa 0,0 l/m 6,2 km/h (2 Bft) SW 215 0 min 0,000 mm 0,0 UV-I 9 W/m 4,6 C 5,5 C 9,7 km/h (2 Bft) 98,00 %
14.10.2015 07:50 5,5 C 94 % 1015,1 hPa 0,0 l/m 5,3 km/h (1 Bft) SW 232 0 min 0,000 mm 0,0 UV-I 11 W/m 4,6 C 5,5 C 8,0 km/h (2 Bft) 100,00 %
14.10.2015 07:52 5,6 C 94 % 1015,1 hPa 0,0 l/m 5,9 km/h (2 Bft) SW 221 0 min 0,000 mm 0,0 UV-I 11 W/m 4,7 C 5,6 C 9,7 km/h (2 Bft) 100,00 %
14.10.2015 07:54 5,6 C 94 % 1015,1 hPa 0,0 l/m 4,5 km/h (1 Bft) SW 215 0 min 0,000 mm 0,0 UV-I 12 W/m 4,7 C 5,6 C 8,0 km/h (2 Bft) 100,00 %
14.10.2015 07:56 5,6 C 94 % 1015,0 hPa 0,0 l/m 5,0 km/h (1 Bft) S-SW 213 0 min 0,000 mm 0,0 UV-I 14 W/m 4,7 C 5,6 C 6,4 km/h (2 Bft) 100,00 %
14.10.2015 07:58 5,6 C 94 % 1015,1 hPa 0,0 l/m 5,6 km/h (1 Bft) SW 225 0 min 0,000 mm 0,0 UV-I 14 W/m 4,7 C 5,6 C 9,7 km/h (2 Bft) 100,00 %
14.10.2015 08:00 5,6 C 94 % 1015,1 hPa 0,0 l/m 4,6 km/h (1 Bft) S-SW 213 0 min 0,000 mm 0,0 UV-I 14 W/m 4,7 C 5,6 C 8,0 km/h (2 Bft) 94,00 %
14.10.2015 08:02 5,6 C 94 % 1015,1 hPa 0,2 l/m 4,9 km/h (1 Bft) SW 232 0 min 0,000 mm 0,0 UV-I 14 W/m 4,7 C 5,6 C 8,0 km/h (2 Bft) 100,00 %
14.10.2015 08:04 5,7 C 94 % 1015,2 hPa 0,0 l/m 5,0 km/h (1 Bft) W-SW 242 0 min 0,000 mm 0,0 UV-I 12 W/m 4,8 C 5,7 C 8,0 km/h (2 Bft) 97,37 %
14.10.2015 08:06 5,7 C 94 % 1015,3 hPa 0,0 l/m 3,9 km/h (1 Bft) W-SW 238 0 min 0,000 mm 0,0 UV-I 12 W/m 4,8 C 5,7 C 6,4 km/h (2 Bft) 98,00 %
14.10.2015 08:08 5,7 C 94 % 1015,3 hPa 0,0 l/m 5,1 km/h (1 Bft) W 268 0 min 0,000 mm 0,0 UV-I 11 W/m 4,8 C 5,7 C 12,9 km/h (3 Bft) 100,00 %
14.10.2015 08:10 5,7 C 94 % 1015,3 hPa 0,0 l/m 4,8 km/h (1 Bft) SW 234 0 min 0,000 mm 0,0 UV-I 9 W/m 4,8 C 5,7 C 9,7 km/h (2 Bft) 100,00 %
14.10.2015 08:12 5,7 C 94 % 1015,3 hPa 0,0 l/m 5,1 km/h (1 Bft) S-SW 210 0 min 0,000 mm 0,0 UV-I 9 W/m 4,8 C 5,7 C 9,7 km/h (2 Bft) 97,37 %
14.10.2015 08:14 5,7 C 94 % 1015,3 hPa 0,0 l/m 2,9 km/h (1 Bft) W-SW 257 0 min 0,000 mm 0,0 UV-I 9 W/m 4,8 C 5,7 C 11,3 km/h (2 Bft) 100,00 %
14.10.2015 08:16 5,7 C 94 % 1015,2 hPa 0,0 l/m 3,7 km/h (1 Bft) W 271 0 min 0,000 mm 0,0 UV-I 10 W/m 4,8 C 5,7 C 8,0 km/h (2 Bft) 100,00 %
14.10.2015 08:18 5,7 C 94 % 1015,3 hPa 0,0 l/m 3,8 km/h (1 Bft) W-SW 241 0 min 0,000 mm 0,0 UV-I 11 W/m 4,8 C 5,7 C 8,0 km/h (2 Bft) 97,87 %
14.10.2015 08:20 5,7 C 94 % 1015,3 hPa 0,0 l/m 2,9 km/h (1 Bft) W 265 0 min 0,000 mm 0,0 UV-I 11 W/m 4,8 C 5,7 C 4,8 km/h (1 Bft) 97,22 %
14.10.2015 08:22 5,8 C 94 % 1015,3 hPa 0,0 l/m 4,0 km/h (1 Bft) W-SW 253 0 min 0,000 mm 0,0 UV-I 11 W/m 4,9 C 5,8 C 6,4 km/h (2 Bft) 100,00 %
14.10.2015 08:24 5,8 C 94 % 1015,3 hPa 0,0 l/m 3,1 km/h (1 Bft) W-SW 243 0 min 0,000 mm 0,0 UV-I 12 W/m 4,9 C 5,8 C 4,8 km/h (1 Bft) 100,00 %
14.10.2015 08:26 5,8 C 94 % 1015,3 hPa 0,0 l/m 3,1 km/h (1 Bft) W-SW 242 0 min 0,000 mm 0,0 UV-I 13 W/m 4,9 C 5,8 C 4,8 km/h (1 Bft) 100,00 %
14.10.2015 08:28 5,8 C 94 % 1015,4 hPa 0,0 l/m 3,4 km/h (1 Bft) W-SW 245 0 min 0,000 mm 0,0 UV-I 16 W/m 4,9 C 5,8 C 4,8 km/h (1 Bft) 98,00 %
14.10.2015 08:30 5,8 C 94 % 1015,3 hPa 0,0 l/m 3,3 km/h (1 Bft) W 269 0 min 0,000 mm 0,0 UV-I 17 W/m 4,9 C 5,8 C 4,8 km/h (1 Bft) 97,56 %
14.10.2015 08:32 5,8 C 94 % 1015,4 hPa 0,0 l/m 4,7 km/h (1 Bft) W-SW 248 0 min 0,000 mm 0,0 UV-I 18 W/m 4,9 C 5,8 C 9,7 km/h (2 Bft) 100,00 %
14.10.2015 08:34 5,8 C 94 % 1015,3 hPa 0,0 l/m 3,8 km/h (1 Bft) W 269 0 min 0,000 mm 0,0 UV-I 18 W/m 4,9 C 5,8 C 11,3 km/h (2 Bft) 100,00 %
14.10.2015 08:36 5,8 C 93 % 1015,4 hPa 0,0 l/m 4,0 km/h (1 Bft) W 267 0 min 0,000 mm 0,0 UV-I 18 W/m 4,8 C 5,8 C 6,4 km/h (2 Bft) 100,00 %
14.10.2015 08:38 5,8 C 93 % 1015,4 hPa 0,0 l/m 5,6 km/h (1 Bft) SW 232 0 min 0,000 mm 0,0 UV-I 19 W/m 4,8 C 5,8 C 12,9 km/h (3 Bft) 97,56 %
14.10.2015 08:40 5,8 C 93 % 1015,4 hPa 0,0 l/m 4,0 km/h (1 Bft) SW 227 0 min 0,000 mm 0,0 UV-I 20 W/m 4,8 C 5,8 C 8,0 km/h (2 Bft) 100,00 %
14.10.2015 08:42 5,9 C 93 % 1015,5 hPa 0,0 l/m 3,2 km/h (1 Bft) W 275 0 min 0,000 mm 0,0 UV-I 21 W/m 4,9 C 5,9 C 6,4 km/h (2 Bft) 100,00 %
14.10.2015 08:44 5,9 C 94 % 1015,4 hPa 0,0 l/m 4,2 km/h (1 Bft) W-NW 288 0 min 0,000 mm 0,0 UV-I 25 W/m 5,0 C 5,9 C 8,0 km/h (2 Bft) 100,00 %
14.10.2015 08:46 5,9 C 94 % 1015,4 hPa 0,0 l/m 2,9 km/h (1 Bft) W 265 0 min 0,000 mm 0,0 UV-I 29 W/m 5,0 C 5,9 C 6,4 km/h (2 Bft) 100,00 %
14.10.2015 08:48 5,9 C 93 % 1015,5 hPa 0,2 l/m 4,6 km/h (1 Bft) W-SW 257 0 min 0,000 mm 0,0 UV-I 32 W/m 4,9 C 5,9 C 6,4 km/h (2 Bft) 100,00 %
14.10.2015 08:50 5,9 C 94 % 1015,6 hPa 0,0 l/m 2,9 km/h (1 Bft) W-SW 241 0 min 0,000 mm 0,0 UV-I 33 W/m 5,0 C 5,9 C 4,8 km/h (1 Bft) 100,00 %
14.10.2015 08:52 5,9 C 94 % 1015,5 hPa 0,0 l/m 3,8 km/h (1 Bft) W 271 0 min 0,000 mm 0,0 UV-I 33 W/m 5,0 C 5,9 C 6,4 km/h (2 Bft) 100,00 %
14.10.2015 08:54 5,9 C 94 % 1015,5 hPa 0,2 l/m 3,0 km/h (1 Bft) NW 309 0 min 0,000 mm 0,0 UV-I 34 W/m 5,0 C 5,9 C 6,4 km/h (2 Bft) 100,00 %
14.10.2015 08:56 5,9 C 94 % 1015,5 hPa 0,0 l/m 2,8 km/h (1 Bft) W 270 0 min 0,000 mm 0,0 UV-I 39 W/m 5,0 C 5,9 C 6,4 km/h (2 Bft) 97,22 %
14.10.2015 08:58 5,9 C 94 % 1015,5 hPa 0,0 l/m 1,5 km/h (1 Bft) W 273 0 min 0,000 mm 0,0 UV-I 43 W/m 5,0 C 5,9 C 3,2 km/h (1 Bft) 100,00 %
14.10.2015 09:00 5,9 C 94 % 1015,5 hPa 0,0 l/m 3,5 km/h (1 Bft) W-NW 295 0 min 0,000 mm 0,0 UV-I 45 W/m 5,0 C 5,9 C 6,4 km/h (2 Bft) 100,00 %
14.10.2015 09:02 5,9 C 94 % 1015,6 hPa 0,0 l/m 2,1 km/h (1 Bft) W-NW 301 0 min 0,000 mm 0,0 UV-I 46 W/m 5,0 C 5,9 C 4,8 km/h (1 Bft) 97,87 %
14.10.2015 09:04 5,9 C 94 % 1015,5 hPa 0,0 l/m 0,4 km/h (0 Bft) W 281 0 min 0,000 mm 0,0 UV-I 51 W/m 5,0 C 5,9 C 1,6 km/h (1 Bft) 97,56 %
14.10.2015 09:06 5,9 C 95 % 1015,6 hPa 0,0 l/m 2,0 km/h (1 Bft) W 270 0 min 0,000 mm 0,0 UV-I 56 W/m 5,2 C 5,9 C 4,8 km/h (1 Bft) 100,00 %
14.10.2015 09:08 5,9 C 95 % 1015,6 hPa 0,0 l/m 2,1 km/h (1 Bft) W 268 0 min 0,000 mm 0,0 UV-I 62 W/m 5,2 C 5,9 C 4,8 km/h (1 Bft) 100,00 %
14.10.2015 09:10 6,0 C 95 % 1015,6 hPa 0,0 l/m 1,6 km/h (1 Bft) W 274 0 min 0,000 mm 0,0 UV-I 64 W/m 5,3 C 6,0 C 3,2 km/h (1 Bft) 100,00 %
14.10.2015 09:12 6,0 C 95 % 1015,6 hPa 0,0 l/m 2,9 km/h (1 Bft) W 280 0 min 0,000 mm 0,0 UV-I 59 W/m 5,3 C 6,0 C 4,8 km/h (1 Bft) 97,37 %
14.10.2015 09:14 6,1 C 94 % 1015,6 hPa 0,2 l/m 1,9 km/h (1 Bft) W-NW 289 0 min 0,000 mm 0,0 UV-I 61 W/m 5,2 C 6,1 C 4,8 km/h (1 Bft) 100,00 %
14.10.2015 09:16 6,1 C 94 % 1015,6 hPa 0,0 l/m 2,5 km/h (1 Bft) W-NW 288 0 min 0,000 mm 0,0 UV-I 59 W/m 5,2 C 6,1 C 3,2 km/h (1 Bft) 100,00 %
14.10.2015 09:18 6,1 C 94 % 1015,7 hPa 0,0 l/m 1,9 km/h (1 Bft) SW 221 0 min 0,000 mm 0,0 UV-I 51 W/m 5,2 C 6,1 C 3,2 km/h (1 Bft) 98,11 %
14.10.2015 09:20 6,1 C 94 % 1015,7 hPa 0,0 l/m 2,0 km/h (1 Bft) W-NW 282 0 min 0,000 mm 0,0 UV-I 47 W/m 5,2 C 6,1 C 4,8 km/h (1 Bft) 100,00 %
14.10.2015 09:22 6,1 C 94 % 1015,7 hPa 0,0 l/m 1,6 km/h (1 Bft) W 281 0 min 0,000 mm 0,0 UV-I 45 W/m 5,2 C 6,1 C 3,2 km/h (1 Bft) 97,87 %
14.10.2015 09:24 6,1 C 95 % 1015,6 hPa 0,0 l/m 0,5 km/h (0 Bft) W 281 0 min 0,000 mm 0,0 UV-I 55 W/m 5,4 C 6,1 C 1,6 km/h (1 Bft) 100,00 %
14.10.2015 09:26 6,2 C 95 % 1015,6 hPa 0,0 l/m 1,2 km/h (1 Bft) W 281 0 min 0,000 mm 0,0 UV-I 70 W/m 5,5 C 6,2 C 1,6 km/h (1 Bft) 96,00 %
14.10.2015 09:28 6,2 C 95 % 1015,6 hPa 0,0 l/m 0,7 km/h (0 Bft) W-NW 290 0 min 0,000 mm 0,0 UV-I 89 W/m 5,5 C 6,2 C 3,2 km/h (1 Bft) 100,00 %
14.10.2015 09:30 6,2 C 95 % 1015,6 hPa 0,0 l/m 1,7 km/h (1 Bft) N-NW 336 0 min 0,000 mm 0,3 UV-I 121 W/m 5,5 C 6,2 C 3,2 km/h (1 Bft) 100,00 %
14.10.2015 09:32 6,3 C 95 % 1015,6 hPa 0,0 l/m 0,9 km/h (0 Bft) NW 313 0 min 0,000 mm 0,5 UV-I 146 W/m 5,6 C 6,3 C 1,6 km/h (1 Bft) 98,00 %
14.10.2015 09:34 6,3 C 95 % 1015,7 hPa 0,0 l/m 0,4 km/h (0 Bft) NW 304 0 min 0,000 mm 0,5 UV-I 152 W/m 5,6 C 6,3 C 1,6 km/h (1 Bft) 100,00 %
14.10.2015 09:36 6,3 C 95 % 1015,6 hPa 0,0 l/m 1,5 km/h (1 Bft) W-NW 295 0 min 0,000 mm 0,6 UV-I 174 W/m 5,6 C 6,3 C 3,2 km/h (1 Bft) 100,00 %
14.10.2015 09:38 6,4 C 95 % 1015,6 hPa 0,0 l/m 1,9 km/h (1 Bft) W-NW 290 0 min 0,000 mm 0,6 UV-I 184 W/m 5,7 C 6,4 C 3,2 km/h (1 Bft) 97,22 %
14.10.2015 09:40 6,5 C 94 % 1015,6 hPa 0,0 l/m 0,4 km/h (0 Bft) W-NW 290 2 min 0,000 mm 0,6 UV-I 190 W/m 5,6 C 6,5 C 1,6 km/h (1 Bft) 100,00 %
14.10.2015 09:42 6,6 C 95 % 1015,6 hPa 0,0 l/m 1,5 km/h (1 Bft) W-SW 248 0 min 0,000 mm 0,6 UV-I 165 W/m 5,9 C 6,6 C 3,2 km/h (1 Bft) 98,11 %
14.10.2015 09:44 6,7 C 95 % 1015,7 hPa 0,0 l/m 2,0 km/h (1 Bft) W 275 0 min 0,000 mm 0,5 UV-I 143 W/m 6,0 C 6,7 C 4,8 km/h (1 Bft) 100,00 %
14.10.2015 09:46 6,7 C 94 % 1015,7 hPa 0,0 l/m 2,3 km/h (1 Bft) W-SW 251 0 min 0,000 mm 0,6 UV-I 156 W/m 5,8 C 6,7 C 3,2 km/h (1 Bft) 100,00 %
14.10.2015 09:48 6,7 C 94 % 1015,7 hPa 0,0 l/m 2,7 km/h (1 Bft) W-SW 238 0 min 0,000 mm 0,6 UV-I 192 W/m 5,8 C 6,7 C 4,8 km/h (1 Bft) 98,11 %
14.10.2015 09:50 6,7 C 94 % 1015,7 hPa 0,0 l/m 1,0 km/h (0 Bft) W-SW 244 2 min 0,000 mm 0,7 UV-I 218 W/m 5,8 C 6,7 C 3,2 km/h (1 Bft) 100,00 %
14.10.2015 09:52 6,8 C 95 % 1015,7 hPa 0,0 l/m 2,2 km/h (1 Bft) W 262 2 min 0,000 mm 0,7 UV-I 248 W/m 6,1 C 6,8 C 3,2 km/h (1 Bft) 98,00 %
14.10.2015 09:54 6,9 C 94 % 1015,7 hPa 0,0 l/m 2,6 km/h (1 Bft) SW 233 2 min 0,000 mm 0,8 UV-I 258 W/m 6,0 C 6,9 C 6,4 km/h (2 Bft) 100,00 %
14.10.2015 09:56 7,1 C 94 % 1015,6 hPa 0,0 l/m 3,5 km/h (1 Bft) W-SW 242 2 min 0,000 mm 0,7 UV-I 222 W/m 6,2 C 7,1 C 4,8 km/h (1 Bft) 98,00 %
14.10.2015 09:58 7,1 C 93 % 1015,6 hPa 0,0 l/m 3,3 km/h (1 Bft) W-NW 302 2 min 0,000 mm 0,8 UV-I 226 W/m 6,0 C 7,1 C 6,4 km/h (2 Bft) 100,00 %
14.10.2015 10:00 7,1 C 93 % 1015,6 hPa 0,0 l/m 3,8 km/h (1 Bft) W 265 2 min 0,051 mm 0,8 UV-I 233 W/m 6,0 C 7,1 C 6,4 km/h (2 Bft) 100,00 %
14.10.2015 10:02 7,1 C 92 % 1015,8 hPa 0,0 l/m 3,1 km/h (1 Bft) SW 236 2 min 0,000 mm 0,8 UV-I 217 W/m 5,9 C 7,1 C 6,4 km/h (2 Bft) 100,00 %
14.10.2015 10:04 7,2 C 93 % 1015,8 hPa 0,0 l/m 3,7 km/h (1 Bft) SW 225 0 min 0,000 mm 0,7 UV-I 184 W/m 6,1 C 7,2 C 6,4 km/h (2 Bft) 100,00 %
14.10.2015 10:06 7,2 C 93 % 1015,8 hPa 0,0 l/m 5,1 km/h (1 Bft) SW 221 0 min 0,000 mm 0,6 UV-I 170 W/m 6,1 C 7,2 C 9,7 km/h (2 Bft) 98,00 %
14.10.2015 10:08 7,2 C 92 % 1015,8 hPa 0,0 l/m 5,4 km/h (1 Bft) SW 232 0 min 0,000 mm 0,6 UV-I 166 W/m 6,0 C 7,2 C 8,0 km/h (2 Bft) 100,00 %
14.10.2015 10:10 7,2 C 92 % 1015,8 hPa 0,0 l/m 5,3 km/h (1 Bft) SW 215 0 min 0,000 mm 0,6 UV-I 154 W/m 6,0 C 7,2 C 11,3 km/h (2 Bft) 100,00 %
14.10.2015 10:12 7,2 C 92 % 1015,8 hPa 0,0 l/m 3,9 km/h (1 Bft) SW 232 0 min 0,000 mm 0,6 UV-I 141 W/m 6,0 C 7,2 C 9,7 km/h (2 Bft) 100,00 %
14.10.2015 10:14 7,3 C 92 % 1015,8 hPa 0,0 l/m 5,0 km/h (1 Bft) SW 217 0 min 0,000 mm 0,5 UV-I 133 W/m 6,1 C 7,3 C 11,3 km/h (2 Bft) 100,00 %
14.10.2015 10:16 7,3 C 91 % 1015,8 hPa 0,0 l/m 3,5 km/h (1 Bft) W-SW 246 0 min 0,000 mm 0,5 UV-I 127 W/m 5,9 C 7,3 C 6,4 km/h (2 Bft) 100,00 %
14.10.2015 10:18 7,3 C 90 % 1015,8 hPa 0,0 l/m 5,1 km/h (1 Bft) W 267 0 min 0,000 mm 0,5 UV-I 123 W/m 5,8 C 7,3 C 8,0 km/h (2 Bft) 97,87 %
14.10.2015 10:20 7,3 C 91 % 1015,8 hPa 0,0 l/m 4,7 km/h (1 Bft) W-SW 239 0 min 0,000 mm 0,5 UV-I 121 W/m 5,9 C 7,3 C 11,3 km/h (2 Bft) 100,00 %
14.10.2015 10:22 7,3 C 92 % 1015,8 hPa 0,0 l/m 3,6 km/h (1 Bft) SW 225 0 min 0,000 mm 0,5 UV-I 126 W/m 6,1 C 7,3 C 8,0 km/h (2 Bft) 100,00 %
14.10.2015 10:24 7,3 C 92 % 1015,7 hPa 0,0 l/m 3,1 km/h (1 Bft) W 263 0 min 0,000 mm 0,6 UV-I 130 W/m 6,1 C 7,3 C 6,4 km/h (2 Bft) 100,00 %
14.10.2015 10:26 7,3 C 91 % 1015,7 hPa 0,0 l/m 2,4 km/h (1 Bft) W 278 0 min 0,000 mm 0,6 UV-I 125 W/m 5,9 C 7,3 C 4,8 km/h (1 Bft) 100,00 %
14.10.2015 10:28 7,3 C 92 % 1015,7 hPa 0,0 l/m 1,6 km/h (1 Bft) W-NW 293 0 min 0,000 mm 0,5 UV-I 114 W/m 6,1 C 7,3 C 3,2 km/h (1 Bft) 100,00 %
14.10.2015 10:30 7,2 C 92 % 1015,8 hPa 0,0 l/m 2,8 km/h (1 Bft) W 265 0 min 0,000 mm 0,5 UV-I 109 W/m 6,0 C 7,2 C 4,8 km/h (1 Bft) 100,00 %
14.10.2015 10:32 7,3 C 91 % 1015,7 hPa 0,0 l/m 2,8 km/h (1 Bft) SW 229 0 min 0,000 mm 0,5 UV-I 114 W/m 5,9 C 7,3 C 4,8 km/h (1 Bft) 100,00 %
14.10.2015 10:34 7,3 C 92 % 1015,8 hPa 0,0 l/m 3,0 km/h (1 Bft) SW 220 0 min 0,000 mm 0,6 UV-I 120 W/m 6,1 C 7,3 C 6,4 km/h (2 Bft) 100,00 %
14.10.2015 10:36 7,3 C 92 % 1015,7 hPa 0,0 l/m 3,7 km/h (1 Bft) W 276 0 min 0,000 mm 0,6 UV-I 116 W/m 6,1 C 7,3 C 6,4 km/h (2 Bft) 100,00 %
14.10.2015 10:38 7,3 C 91 % 1015,7 hPa 0,0 l/m 4,4 km/h (1 Bft) W 263 0 min 0,000 mm 0,6 UV-I 118 W/m 5,9 C 7,3 C 9,7 km/h (2 Bft) 100,00 %
14.10.2015 10:40 7,3 C 91 % 1015,7 hPa 0,0 l/m 3,5 km/h (1 Bft) W 281 0 min 0,000 mm 0,7 UV-I 131 W/m 5,9 C 7,3 C 6,4 km/h (2 Bft) 100,00 %
14.10.2015 10:42 7,3 C 91 % 1015,7 hPa 0,0 l/m 3,7 km/h (1 Bft) W-SW 248 0 min 0,000 mm 0,7 UV-I 142 W/m 5,9 C 7,3 C 6,4 km/h (2 Bft) 100,00 %
14.10.2015 10:44 7,4 C 91 % 1015,7 hPa 0,0 l/m 3,9 km/h (1 Bft) W 273 0 min 0,000 mm 0,7 UV-I 150 W/m 6,0 C 7,4 C 9,7 km/h (2 Bft) 100,00 %
14.10.2015 10:46 7,4 C 91 % 1015,7 hPa 0,0 l/m 3,5 km/h (1 Bft) S-SW 208 0 min 0,000 mm 0,8 UV-I 165 W/m 6,0 C 7,4 C 6,4 km/h (2 Bft) 100,00 %
14.10.2015 10:48 7,5 C 91 % 1015,7 hPa 0,0 l/m 4,8 km/h (1 Bft) W-NW 283 0 min 0,000 mm 0,8 UV-I 160 W/m 6,1 C 7,5 C 9,7 km/h (2 Bft) 100,00 %
14.10.2015 10:50 7,5 C 90 % 1015,7 hPa 0,0 l/m 5,2 km/h (1 Bft) W 269 0 min 0,000 mm 0,8 UV-I 162 W/m 6,0 C 7,5 C 6,4 km/h (2 Bft) 100,00 %
14.10.2015 10:52 7,5 C 90 % 1015,7 hPa 0,0 l/m 4,7 km/h (1 Bft) W-NW 302 0 min 0,000 mm 0,8 UV-I 154 W/m 6,0 C 7,5 C 9,7 km/h (2 Bft) 100,00 %
14.10.2015 10:54 7,6 C 92 % 1015,7 hPa 0,0 l/m 2,5 km/h (1 Bft) S-SW 206 0 min 0,000 mm 0,8 UV-I 156 W/m 6,4 C 7,6 C 4,8 km/h (1 Bft) 98,00 %
14.10.2015 10:56 7,6 C 91 % 1015,7 hPa 0,0 l/m 3,5 km/h (1 Bft) W 262 0 min 0,000 mm 0,8 UV-I 161 W/m 6,2 C 7,6 C 6,4 km/h (2 Bft) 98,00 %
14.10.2015 10:58 7,6 C 91 % 1015,7 hPa 0,0 l/m 4,1 km/h (1 Bft) NW 309 0 min 0,000 mm 0,8 UV-I 160 W/m 6,2 C 7,6 C 6,4 km/h (2 Bft) 100,00 %
14.10.2015 11:00 7,6 C 90 % 1015,7 hPa 0,0 l/m 4,7 km/h (1 Bft) W-NW 292 0 min 0,076 mm 0,8 UV-I 160 W/m 6,1 C 7,6 C 6,4 km/h (2 Bft) 100,00 %
14.10.2015 11:02 7,6 C 90 % 1015,8 hPa 0,0 l/m 5,2 km/h (1 Bft) W 265 0 min 0,000 mm 0,8 UV-I 157 W/m 6,1 C 7,6 C 9,7 km/h (2 Bft) 96,00 %
14.10.2015 11:04 7,6 C 89 % 1015,8 hPa 0,0 l/m 3,5 km/h (1 Bft) W-NW 298 0 min 0,000 mm 0,8 UV-I 148 W/m 5,9 C 7,6 C 6,4 km/h (2 Bft) 100,00 %
14.10.2015 11:06 7,6 C 90 % 1015,7 hPa 0,0 l/m 3,0 km/h (1 Bft) NW 307 0 min 0,000 mm 0,8 UV-I 142 W/m 6,1 C 7,6 C 4,8 km/h (1 Bft) 97,56 %
14.10.2015 11:08 7,6 C 90 % 1015,8 hPa 0,0 l/m 4,0 km/h (1 Bft) W 277 0 min 0,000 mm 0,8 UV-I 142 W/m 6,1 C 7,6 C 9,7 km/h (2 Bft) 100,00 %
14.10.2015 11:10 7,6 C 90 % 1015,8 hPa 0,0 l/m 2,3 km/h (1 Bft) W-NW 287 0 min 0,000 mm 0,8 UV-I 143 W/m 6,1 C 7,6 C 4,8 km/h (1 Bft) 100,00 %
14.10.2015 11:12 7,6 C 90 % 1015,8 hPa 0,0 l/m 2,2 km/h (1 Bft) W-NW 289 0 min 0,000 mm 0,9 UV-I 147 W/m 6,1 C 7,6 C 4,8 km/h (1 Bft) 100,00 %
14.10.2015 11:14 7,6 C 89 % 1015,7 hPa 0,0 l/m 1,8 km/h (1 Bft) W 278 0 min 0,000 mm 0,9 UV-I 148 W/m 5,9 C 7,6 C 3,2 km/h (1 Bft) 100,00 %
14.10.2015 11:16 7,6 C 90 % 1015,8 hPa 0,0 l/m 2,7 km/h (1 Bft) W-NW 290 0 min 0,000 mm 0,8 UV-I 147 W/m 6,1 C 7,6 C 4,8 km/h (1 Bft) 98,00 %
14.10.2015 11:18 7,6 C 91 % 1015,8 hPa 0,0 l/m 0,8 km/h (0 Bft) W-NW 290 0 min 0,000 mm 0,8 UV-I 131 W/m 6,2 C 7,6 C 3,2 km/h (1 Bft) 100,00 %
14.10.2015 11:20 7,6 C 90 % 1015,8 hPa 0,0 l/m 1,4 km/h (1 Bft) W 270 0 min 0,000 mm 0,7 UV-I 101 W/m 6,1 C 7,6 C 3,2 km/h (1 Bft) 97,56 %
14.10.2015 11:22 7,6 C 90 % 1015,8 hPa 0,0 l/m 1,8 km/h (1 Bft) W-NW 290 0 min 0,000 mm 0,6 UV-I 88 W/m 6,1 C 7,6 C 4,8 km/h (1 Bft) 100,00 %
14.10.2015 11:24 7,6 C 92 % 1015,8 hPa 0,0 l/m 3,3 km/h (1 Bft) N 355 0 min 0,000 mm 0,5 UV-I 91 W/m 6,4 C 7,6 C 6,4 km/h (2 Bft) 100,00 %
14.10.2015 11:26 7,6 C 92 % 1015,7 hPa 0,0 l/m 4,4 km/h (1 Bft) N-NO 32 0 min 0,000 mm 0,5 UV-I 97 W/m 6,4 C 7,6 C 6,4 km/h (2 Bft) 98,39 %
14.10.2015 11:28 7,5 C 92 % 1015,7 hPa 0,0 l/m 4,3 km/h (1 Bft) N-NO 17 0 min 0,000 mm 0,6 UV-I 103 W/m 6,3 C 7,5 C 6,4 km/h (2 Bft) 100,00 %
14.10.2015 11:30 7,5 C 92 % 1015,7 hPa 0,0 l/m 4,4 km/h (1 Bft) N 360 0 min 0,000 mm 0,6 UV-I 112 W/m 6,3 C 7,5 C 8,0 km/h (2 Bft) 97,56 %
14.10.2015 11:32 7,5 C 93 % 1015,9 hPa 0,0 l/m 3,0 km/h (1 Bft) N 355 0 min 0,000 mm 0,6 UV-I 101 W/m 6,4 C 7,5 C 4,8 km/h (1 Bft) 100,00 %
14.10.2015 11:34 7,4 C 91 % 1015,9 hPa 0,0 l/m 2,7 km/h (1 Bft) N 9 0 min 0,000 mm 0,5 UV-I 91 W/m 6,0 C 7,4 C 6,4 km/h (2 Bft) 100,00 %
14.10.2015 11:36 7,4 C 93 % 1015,9 hPa 0,0 l/m 2,5 km/h (1 Bft) N 9 0 min 0,000 mm 0,5 UV-I 96 W/m 6,3 C 7,4 C 4,8 km/h (1 Bft) 100,00 %
14.10.2015 11:38 7,5 C 93 % 1015,8 hPa 0,0 l/m 2,4 km/h (1 Bft) N-NO 18 0 min 0,000 mm 0,6 UV-I 110 W/m 6,4 C 7,5 C 4,8 km/h (1 Bft) 97,87 %
14.10.2015 11:40 7,5 C 93 % 1015,7 hPa 0,0 l/m 2,8 km/h (1 Bft) N-NO 20 0 min 0,000 mm 0,8 UV-I 123 W/m 6,4 C 7,5 C 4,8 km/h (1 Bft) 100,00 %
14.10.2015 11:42 7,6 C 94 % 1015,7 hPa 0,0 l/m 2,5 km/h (1 Bft) N 5 0 min 0,000 mm 0,8 UV-I 123 W/m 6,7 C 7,6 C 6,4 km/h (2 Bft) 100,00 %
14.10.2015 11:44 7,6 C 93 % 1015,7 hPa 0,0 l/m 2,9 km/h (1 Bft) NO 42 0 min 0,000 mm 1,0 UV-I 149 W/m 6,5 C 7,6 C 4,8 km/h (1 Bft) 100,00 %
14.10.2015 11:46 7,6 C 93 % 1015,6 hPa 0,0 l/m 3,4 km/h (1 Bft) NO 34 0 min 0,000 mm 1,1 UV-I 184 W/m 6,5 C 7,6 C 4,8 km/h (1 Bft) 98,00 %
14.10.2015 11:48 7,6 C 93 % 1015,7 hPa 0,0 l/m 2,0 km/h (1 Bft) NO 41 0 min 0,000 mm 1,1 UV-I 189 W/m 6,5 C 7,6 C 4,8 km/h (1 Bft) 100,00 %
14.10.2015 11:50 7,7 C 93 % 1015,7 hPa 0,0 l/m 1,7 km/h (1 Bft) N-NO 33 0 min 0,000 mm 1,1 UV-I 180 W/m 6,6 C 7,7 C 3,2 km/h (1 Bft) 100,00 %
14.10.2015 11:52 7,7 C 93 % 1015,7 hPa 0,0 l/m 2,7 km/h (1 Bft) N-NO 17 0 min 0,000 mm 1,2 UV-I 202 W/m 6,6 C 7,7 C 4,8 km/h (1 Bft) 100,00 %
14.10.2015 11:54 7,7 C 92 % 1015,7 hPa 0,0 l/m 3,5 km/h (1 Bft) N-NO 22 0 min 0,000 mm 1,2 UV-I 217 W/m 6,5 C 7,7 C 6,4 km/h (2 Bft) 100,00 %
14.10.2015 11:56 7,8 C 93 % 1015,7 hPa 0,0 l/m 1,9 km/h (1 Bft) N-NO 21 0 min 0,000 mm 1,2 UV-I 230 W/m 6,7 C 7,8 C 3,2 km/h (1 Bft) 100,00 %
14.10.2015 11:58 7,9 C 92 % 1015,7 hPa 0,0 l/m 1,8 km/h (1 Bft) N 5 0 min 0,000 mm 1,3 UV-I 236 W/m 6,7 C 7,9 C 3,2 km/h (1 Bft) 98,00 %
14.10.2015 12:00 7,8 C 92 % 1015,7 hPa 0,0 l/m 1,7 km/h (1 Bft) O-NO 57 0 min 0,076 mm 1,2 UV-I 226 W/m 6,6 C 7,8 C 3,2 km/h (1 Bft) 100,00 %
14.10.2015 12:02 7,9 C 92 % 1015,7 hPa 0,0 l/m 1,2 km/h (1 Bft) N-NO 26 0 min 0,000 mm 1,1 UV-I 213 W/m 6,7 C 7,9 C 3,2 km/h (1 Bft) 100,00 %
14.10.2015 12:04 8,0 C 92 % 1015,7 hPa 0,0 l/m 2,2 km/h (1 Bft) N-NO 23 0 min 0,000 mm 1,1 UV-I 195 W/m 6,8 C 8,0 C 3,2 km/h (1 Bft) 100,00 %
14.10.2015 12:06 7,9 C 91 % 1015,8 hPa 0,0 l/m 2,1 km/h (1 Bft) NW 317 0 min 0,000 mm 1,0 UV-I 186 W/m 6,5 C 7,9 C 3,2 km/h (1 Bft) 100,00 %
14.10.2015 12:08 7,9 C 92 % 1015,8 hPa 0,0 l/m 1,8 km/h (1 Bft) N-NO 30 0 min 0,000 mm 0,9 UV-I 179 W/m 6,7 C 7,9 C 4,8 km/h (1 Bft) 98,11 %
14.10.2015 12:10 8,0 C 91 % 1015,8 hPa 0,0 l/m 2,6 km/h (1 Bft) N-NO 13 0 min 0,000 mm 0,9 UV-I 170 W/m 6,6 C 8,0 C 4,8 km/h (1 Bft) 97,87 %
14.10.2015 12:12 7,9 C 90 % 1015,9 hPa 0,0 l/m 1,5 km/h (1 Bft) N-NO 24 0 min 0,000 mm 0,9 UV-I 150 W/m 6,4 C 7,9 C 3,2 km/h (1 Bft) 100,00 %
14.10.2015 12:14 8,1 C 91 % 1015,8 hPa 0,0 l/m 3,1 km/h (1 Bft) N 355 0 min 0,000 mm 0,8 UV-I 136 W/m 6,7 C 8,1 C 4,8 km/h (1 Bft) 100,00 %
14.10.2015 12:16 7,9 C 89 % 1015,8 hPa 0,0 l/m 1,8 km/h (1 Bft) N 9 0 min 0,000 mm 0,8 UV-I 135 W/m 6,2 C 7,9 C 3,2 km/h (1 Bft) 100,00 %
14.10.2015 12:18 7,9 C 90 % 1015,7 hPa 0,0 l/m 2,6 km/h (1 Bft) N 355 0 min 0,000 mm 0,8 UV-I 135 W/m 6,4 C 7,9 C 6,4 km/h (2 Bft) 100,00 %
14.10.2015 12:20 7,9 C 89 % 1015,7 hPa 0,0 l/m 2,0 km/h (1 Bft) N-NW 342 0 min 0,000 mm 0,7 UV-I 121 W/m 6,2 C 7,9 C 3,2 km/h (1 Bft) 94,74 %
14.10.2015 12:22 7,8 C 90 % 1015,7 hPa 0,0 l/m 2,3 km/h (1 Bft) N 355 0 min 0,000 mm 0,6 UV-I 103 W/m 6,3 C 7,8 C 4,8 km/h (1 Bft) 100,00 %
14.10.2015 12:24 7,8 C 90 % 1015,8 hPa 0,0 l/m 1,2 km/h (1 Bft) N 355 0 min 0,000 mm 0,5 UV-I 87 W/m 6,3 C 7,8 C 3,2 km/h (1 Bft) 98,00 %
14.10.2015 12:26 7,8 C 90 % 1015,9 hPa 0,0 l/m 0,6 km/h (0 Bft) N-NW 345 0 min 0,000 mm 0,5 UV-I 84 W/m 6,3 C 7,8 C 1,6 km/h (1 Bft) 100,00 %
14.10.2015 12:28 7,8 C 90 % 1015,9 hPa 0,0 l/m 0,9 km/h (0 Bft) N 355 0 min 0,000 mm 0,3 UV-I 77 W/m 6,3 C 7,8 C 3,2 km/h (1 Bft) 97,87 %
14.10.2015 12:30 7,8 C 90 % 1015,9 hPa 0,0 l/m 0,7 km/h (0 Bft) N-NW 339 0 min 0,000 mm 0,0 UV-I 68 W/m 6,3 C 7,8 C 1,6 km/h (1 Bft) 100,00 %
14.10.2015 12:32 7,8 C 90 % 1015,8 hPa 0,0 l/m 1,2 km/h (1 Bft) N 11 0 min 0,000 mm 0,0 UV-I 64 W/m 6,3 C 7,8 C 3,2 km/h (1 Bft) 97,87 %
14.10.2015 12:34 7,7 C 89 % 1015,7 hPa 0,0 l/m 2,1 km/h (1 Bft) NW 316 0 min 0,000 mm 0,0 UV-I 68 W/m 6,0 C 7,7 C 3,2 km/h (1 Bft) 98,11 %
14.10.2015 12:36 7,7 C 90 % 1015,8 hPa 0,0 l/m 1,0 km/h (0 Bft) N-NW 333 0 min 0,000 mm 0,0 UV-I 67 W/m 6,2 C 7,7 C 3,2 km/h (1 Bft) 100,00 %
14.10.2015 12:38 7,7 C 92 % 1015,8 hPa 0,0 l/m 1,5 km/h (1 Bft) N-NW 344 0 min 0,000 mm 0,0 UV-I 63 W/m 6,5 C 7,7 C 3,2 km/h (1 Bft) 100,00 %
14.10.2015 12:40 7,8 C 91 % 1015,9 hPa 0,0 l/m 1,6 km/h (1 Bft) N-NW 348 0 min 0,000 mm 0,0 UV-I 62 W/m 6,4 C 7,8 C 3,2 km/h (1 Bft) 97,92 %
14.10.2015 12:42 7,7 C 90 % 1015,8 hPa 0,0 l/m 2,2 km/h (1 Bft) N 5 0 min 0,000 mm 0,0 UV-I 68 W/m 6,2 C 7,7 C 3,2 km/h (1 Bft) 100,00 %
14.10.2015 12:44 7,7 C 91 % 1015,7 hPa 0,0 l/m 1,9 km/h (1 Bft) N 360 0 min 0,000 mm 0,5 UV-I 72 W/m 6,3 C 7,7 C 3,2 km/h (1 Bft) 100,00 %
14.10.2015 12:46 7,7 C 91 % 1015,6 hPa 0,0 l/m 2,6 km/h (1 Bft) N 9 0 min 0,000 mm 0,5 UV-I 74 W/m 6,3 C 7,7 C 4,8 km/h (1 Bft) 98,00 %
14.10.2015 12:48 7,7 C 90 % 1015,6 hPa 0,0 l/m 2,5 km/h (1 Bft) N-NW 344 0 min 0,000 mm 0,5 UV-I 74 W/m 6,2 C 7,7 C 4,8 km/h (1 Bft) 95,74 %
14.10.2015 12:50 7,7 C 90 % 1015,5 hPa 0,0 l/m 2,9 km/h (1 Bft) N-NO 17 0 min 0,000 mm 0,5 UV-I 76 W/m 6,2 C 7,7 C 4,8 km/h (1 Bft) 97,37 %
14.10.2015 12:52 7,6 C 90 % 1015,3 hPa 0,0 l/m 2,5 km/h (1 Bft) N-NW 328 0 min 0,000 mm 0,5 UV-I 76 W/m 6,1 C 7,6 C 4,8 km/h (1 Bft) 100,00 %
14.10.2015 12:54 7,7 C 91 % 1015,4 hPa 0,0 l/m 1,1 km/h (1 Bft) N-NW 327 0 min 0,000 mm 0,5 UV-I 76 W/m 6,3 C 7,7 C 3,2 km/h (1 Bft) 100,00 %
14.10.2015 12:56 7,7 C 90 % 1015,3 hPa 0,0 l/m 1,9 km/h (1 Bft) N 355 0 min 0,000 mm 0,5 UV-I 76 W/m 6,2 C 7,7 C 4,8 km/h (1 Bft) 100,00 %
14.10.2015 12:58 7,7 C 90 % 1015,4 hPa 0,0 l/m 1,8 km/h (1 Bft) N 355 0 min 0,000 mm 0,5 UV-I 78 W/m 6,2 C 7,7 C 3,2 km/h (1 Bft) 97,87 %
14.10.2015 13:00 7,7 C 90 % 1015,4 hPa 0,0 l/m 1,1 km/h (1 Bft) N 355 0 min 0,051 mm 0,5 UV-I 81 W/m 6,2 C 7,7 C 4,8 km/h (1 Bft) 100,00 %
14.10.2015 13:02 7,7 C 90 % 1015,4 hPa 0,0 l/m 3,6 km/h (1 Bft) N-NO 18 0 min 0,000 mm 0,5 UV-I 86 W/m 6,2 C 7,7 C 6,4 km/h (2 Bft) 98,00 %
14.10.2015 13:04 7,7 C 90 % 1015,4 hPa 0,0 l/m 2,4 km/h (1 Bft) N 9 0 min 0,000 mm 0,6 UV-I 93 W/m 6,2 C 7,7 C 6,4 km/h (2 Bft) 100,00 %
14.10.2015 13:06 7,7 C 89 % 1015,4 hPa 0,0 l/m 2,5 km/h (1 Bft) NW 319 0 min 0,000 mm 0,5 UV-I 89 W/m 6,0 C 7,7 C 4,8 km/h (1 Bft) 100,00 %
14.10.2015 13:08 7,6 C 89 % 1015,5 hPa 0,0 l/m 2,7 km/h (1 Bft) W-SW 258 0 min 0,000 mm 0,5 UV-I 84 W/m 5,9 C 7,6 C 4,8 km/h (1 Bft) 98,00 %
14.10.2015 13:10 7,6 C 90 % 1015,4 hPa 0,0 l/m 0,4 km/h (0 Bft) W 261 0 min 0,000 mm 0,5 UV-I 82 W/m 6,1 C 7,6 C 1,6 km/h (1 Bft) 100,00 %
14.10.2015 13:12 7,6 C 90 % 1015,4 hPa 0,0 l/m 1,8 km/h (1 Bft) N-NW 340 0 min 0,000 mm 0,5 UV-I 77 W/m 6,1 C 7,6 C 3,2 km/h (1 Bft) 100,00 %
14.10.2015 13:14 7,6 C 90 % 1015,3 hPa 0,0 l/m 0,9 km/h (0 Bft) N-NW 342 0 min 0,000 mm 0,5 UV-I 75 W/m 6,1 C 7,6 C 3,2 km/h (1 Bft) 100,00 %
14.10.2015 13:16 7,6 C 90 % 1015,3 hPa 0,0 l/m 0,9 km/h (0 Bft) N-NO 12 0 min 0,000 mm 0,5 UV-I 77 W/m 6,1 C 7,6 C 3,2 km/h (1 Bft) 97,87 %
14.10.2015 13:18 7,7 C 91 % 1015,3 hPa 0,0 l/m 1,1 km/h (1 Bft) NW 315 0 min 0,000 mm 0,5 UV-I 80 W/m 6,3 C 7,7 C 3,2 km/h (1 Bft) 100,00 %
14.10.2015 13:20 7,7 C 91 % 1015,3 hPa 0,0 l/m 1,0 km/h (0 Bft) N 351 0 min 0,000 mm 0,5 UV-I 83 W/m 6,3 C 7,7 C 3,2 km/h (1 Bft) 98,00 %
14.10.2015 13:22 7,7 C 91 % 1015,3 hPa 0,0 l/m 1,7 km/h (1 Bft) N 355 0 min 0,000 mm 0,5 UV-I 80 W/m 6,3 C 7,7 C 3,2 km/h (1 Bft) 100,00 %
14.10.2015 13:24 7,7 C 91 % 1015,3 hPa 0,0 l/m 1,2 km/h (1 Bft) N 355 0 min 0,000 mm 0,5 UV-I 77 W/m 6,3 C 7,7 C 3,2 km/h (1 Bft) 100,00 %
14.10.2015 13:26 7,7 C 91 % 1015,3 hPa 0,0 l/m 0,5 km/h (0 Bft) N 355 0 min 0,000 mm 0,5 UV-I 80 W/m 6,3 C 7,7 C 1,6 km/h (1 Bft) 98,00 %
14.10.2015 13:28 7,8 C 91 % 1015,3 hPa 0,0 l/m 1,5 km/h (1 Bft) N 355 0 min 0,000 mm 0,5 UV-I 78 W/m 6,4 C 7,8 C 4,8 km/h (1 Bft) 100,00 %
14.10.2015 13:30 7,7 C 90 % 1015,3 hPa 0,0 l/m 3,5 km/h (1 Bft) N-NW 341 0 min 0,000 mm 0,5 UV-I 77 W/m 6,2 C 7,7 C 6,4 km/h (2 Bft) 100,00 %
14.10.2015 13:32 7,7 C 91 % 1015,3 hPa 0,0 l/m 1,6 km/h (1 Bft) N 350 0 min 0,000 mm 0,5 UV-I 77 W/m 6,3 C 7,7 C 3,2 km/h (1 Bft) 100,00 %
14.10.2015 13:34 7,7 C 89 % 1015,3 hPa 0,0 l/m 1,7 km/h (1 Bft) N 360 0 min 0,000 mm 0,5 UV-I 77 W/m 6,0 C 7,7 C 3,2 km/h (1 Bft) 98,11 %
14.10.2015 13:36 7,7 C 91 % 1015,2 hPa 0,0 l/m 2,0 km/h (1 Bft) N 10 0 min 0,000 mm 0,5 UV-I 79 W/m 6,3 C 7,7 C 3,2 km/h (1 Bft) 100,00 %
14.10.2015 13:38 7,7 C 91 % 1015,2 hPa 0,0 l/m 2,1 km/h (1 Bft) N-NO 19 0 min 0,000 mm 0,5 UV-I 79 W/m 6,3 C 7,7 C 3,2 km/h (1 Bft) 100,00 %
14.10.2015 13:40 7,7 C 89 % 1015,2 hPa 0,0 l/m 3,0 km/h (1 Bft) N-NO 22 0 min 0,000 mm 0,1 UV-I 74 W/m 6,0 C 7,7 C 6,4 km/h (2 Bft) 100,00 %
14.10.2015 13:42 7,7 C 91 % 1015,3 hPa 0,0 l/m 1,9 km/h (1 Bft) N 9 0 min 0,000 mm 0,0 UV-I 69 W/m 6,3 C 7,7 C 3,2 km/h (1 Bft) 100,00 %
14.10.2015 13:44 7,7 C 89 % 1015,3 hPa 0,0 l/m 2,6 km/h (1 Bft) N 11 0 min 0,000 mm 0,0 UV-I 68 W/m 6,0 C 7,7 C 4,8 km/h (1 Bft) 100,00 %
14.10.2015 13:46 7,7 C 90 % 1015,2 hPa 0,0 l/m 2,2 km/h (1 Bft) N-NW 333 0 min 0,000 mm 0,2 UV-I 77 W/m 6,2 C 7,7 C 3,2 km/h (1 Bft) 97,87 %
14.10.2015 13:48 7,7 C 90 % 1015,3 hPa 0,0 l/m 1,8 km/h (1 Bft) N-NW 339 0 min 0,000 mm 0,5 UV-I 85 W/m 6,2 C 7,7 C 3,2 km/h (1 Bft) 100,00 %
14.10.2015 13:50 7,7 C 91 % 1015,4 hPa 0,0 l/m 3,3 km/h (1 Bft) N 355 0 min 0,000 mm 0,5 UV-I 91 W/m 6,3 C 7,7 C 6,4 km/h (2 Bft) 100,00 %
14.10.2015 13:52 7,7 C 89 % 1015,4 hPa 0,0 l/m 2,9 km/h (1 Bft) N 355 0 min 0,000 mm 0,5 UV-I 91 W/m 6,0 C 7,7 C 4,8 km/h (1 Bft) 100,00 %
14.10.2015 13:54 7,7 C 90 % 1015,5 hPa 0,0 l/m 2,4 km/h (1 Bft) N-NO 12 0 min 0,000 mm 0,5 UV-I 86 W/m 6,2 C 7,7 C 4,8 km/h (1 Bft) 100,00 %
14.10.2015 13:56 7,7 C 89 % 1015,4 hPa 0,0 l/m 2,5 km/h (1 Bft) N-NW 346 0 min 0,000 mm 0,5 UV-I 90 W/m 6,0 C 7,7 C 4,8 km/h (1 Bft) 98,00 %
14.10.2015 13:58 7,8 C 90 % 1015,3 hPa 0,0 l/m 2,5 km/h (1 Bft) N 9 0 min 0,000 mm 0,5 UV-I 92 W/m 6,3 C 7,8 C 4,8 km/h (1 Bft) 100,00 %
14.10.2015 14:00 7,8 C 90 % 1015,3 hPa 0,0 l/m 2,7 km/h (1 Bft) N-NO 13 0 min 0,025 mm 0,5 UV-I 87 W/m 6,3 C 7,8 C 4,8 km/h (1 Bft) 100,00 %
14.10.2015 14:02 7,8 C 90 % 1015,3 hPa 0,0 l/m 3,1 km/h (1 Bft) N 355 0 min 0,000 mm 0,5 UV-I 84 W/m 6,3 C 7,8 C 4,8 km/h (1 Bft) 100,00 %
14.10.2015 14:04 7,8 C 89 % 1015,3 hPa 0,0 l/m 2,1 km/h (1 Bft) N 5 0 min 0,000 mm 0,5 UV-I 80 W/m 6,1 C 7,8 C 3,2 km/h (1 Bft) 98,00 %
14.10.2015 14:06 7,8 C 90 % 1015,3 hPa 0,0 l/m 1,6 km/h (1 Bft) N-NO 32 0 min 0,000 mm 0,0 UV-I 68 W/m 6,3 C 7,8 C 3,2 km/h (1 Bft) 100,00 %
14.10.2015 14:08 7,8 C 90 % 1015,3 hPa 0,0 l/m 1,4 km/h (1 Bft) N-NO 32 0 min 0,000 mm 0,0 UV-I 57 W/m 6,3 C 7,8 C 3,2 km/h (1 Bft) 100,00 %
14.10.2015 14:10 7,8 C 89 % 1015,3 hPa 0,0 l/m 0,1 km/h (0 Bft) N-NO 32 0 min 0,000 mm 0,0 UV-I 53 W/m 6,1 C 7,8 C 1,6 km/h (1 Bft) 100,00 %
14.10.2015 14:12 7,8 C 90 % 1015,3 hPa 0,0 l/m 0,9 km/h (0 Bft) N-NO 31 0 min 0,000 mm 0,0 UV-I 50 W/m 6,3 C 7,8 C 4,8 km/h (1 Bft) 100,00 %
14.10.2015 14:14 7,8 C 89 % 1015,3 hPa 0,0 l/m 2,4 km/h (1 Bft) N-NO 22 0 min 0,000 mm 0,0 UV-I 52 W/m 6,1 C 7,8 C 4,8 km/h (1 Bft) 97,87 %
14.10.2015 14:16 7,8 C 90 % 1015,2 hPa 0,0 l/m 0,6 km/h (0 Bft) N-NO 22 0 min 0,000 mm 0,0 UV-I 53 W/m 6,3 C 7,8 C 1,6 km/h (1 Bft) 100,00 %
14.10.2015 14:18 7,8 C 89 % 1015,3 hPa 0,0 l/m 1,6 km/h (1 Bft) N-NO 22 0 min 0,000 mm 0,0 UV-I 53 W/m 6,1 C 7,8 C 3,2 km/h (1 Bft) 100,00 %
14.10.2015 14:20 7,8 C 90 % 1015,2 hPa 0,0 l/m 1,0 km/h (0 Bft) N-NO 22 0 min 0,000 mm 0,0 UV-I 55 W/m 6,3 C 7,8 C 3,2 km/h (1 Bft) 100,00 %
14.10.2015 14:22 7,8 C 90 % 1015,2 hPa 0,0 l/m 1,0 km/h (0 Bft) N-NO 22 0 min 0,000 mm 0,0 UV-I 57 W/m 6,3 C 7,8 C 1,6 km/h (1 Bft) 100,00 %
14.10.2015 14:24 7,8 C 91 % 1015,1 hPa 0,0 l/m 1,4 km/h (1 Bft) N-NO 22 0 min 0,000 mm 0,0 UV-I 52 W/m 6,4 C 7,8 C 3,2 km/h (1 Bft) 100,00 %
14.10.2015 14:26 7,8 C 90 % 1015,2 hPa 0,0 l/m 1,0 km/h (0 Bft) N-NO 22 0 min 0,000 mm 0,0 UV-I 47 W/m 6,3 C 7,8 C 3,2 km/h (1 Bft) 100,00 %
14.10.2015 14:28 7,8 C 90 % 1015,2 hPa 0,0 l/m 1,4 km/h (1 Bft) N-NO 17 0 min 0,000 mm 0,0 UV-I 46 W/m 6,3 C 7,8 C 3,2 km/h (1 Bft) 100,00 %
14.10.2015 14:30 7,8 C 90 % 1015,2 hPa 0,0 l/m 1,9 km/h (1 Bft) N 5 0 min 0,000 mm 0,0 UV-I 46 W/m 6,3 C 7,8 C 3,2 km/h (1 Bft) 100,00 %
14.10.2015 14:32 7,7 C 90 % 1015,2 hPa 0,0 l/m 1,7 km/h (1 Bft) N 11 0 min 0,000 mm 0,0 UV-I 54 W/m 6,2 C 7,7 C 3,2 km/h (1 Bft) 98,00 %
14.10.2015 14:34 7,7 C 91 % 1015,2 hPa 0,0 l/m 1,0 km/h (0 Bft) N 9 0 min 0,000 mm 0,0 UV-I 58 W/m 6,3 C 7,7 C 1,6 km/h (1 Bft) 100,00 %
14.10.2015 14:36 7,7 C 91 % 1015,2 hPa 0,0 l/m 1,8 km/h (1 Bft) N-NO 21 0 min 0,000 mm 0,0 UV-I 50 W/m 6,3 C 7,7 C 3,2 km/h (1 Bft) 100,00 %
14.10.2015 14:38 7,7 C 91 % 1015,3 hPa 0,0 l/m 1,2 km/h (1 Bft) N-NO 21 0 min 0,000 mm 0,0 UV-I 55 W/m 6,3 C 7,7 C 3,2 km/h (1 Bft) 100,00 %
14.10.2015 14:40 7,7 C 92 % 1015,3 hPa 0,0 l/m 1,3 km/h (1 Bft) N-NO 22 0 min 0,000 mm 0,0 UV-I 66 W/m 6,5 C 7,7 C 3,2 km/h (1 Bft) 96,00 %
14.10.2015 14:42 7,7 C 92 % 1015,2 hPa 0,0 l/m 1,3 km/h (1 Bft) N-NO 22 0 min 0,000 mm 0,0 UV-I 72 W/m 6,5 C 7,7 C 3,2 km/h (1 Bft) 100,00 %
14.10.2015 14:44 7,7 C 91 % 1015,2 hPa 0,0 l/m 1,6 km/h (1 Bft) N-NO 24 0 min 0,000 mm 0,0 UV-I 78 W/m 6,3 C 7,7 C 3,2 km/h (1 Bft) 100,00 %
14.10.2015 14:46 7,7 C 92 % 1015,1 hPa 0,0 l/m 0,5 km/h (0 Bft) N-NO 22 0 min 0,000 mm 0,0 UV-I 79 W/m 6,5 C 7,7 C 1,6 km/h (1 Bft) 100,00 %
14.10.2015 14:48 7,8 C 92 % 1015,1 hPa 0,0 l/m 0,8 km/h (0 Bft) NO 49 0 min 0,000 mm 0,1 UV-I 79 W/m 6,6 C 7,8 C 3,2 km/h (1 Bft) 100,00 %
14.10.2015 14:50 7,8 C 92 % 1015,1 hPa 0,0 l/m 1,1 km/h (1 Bft) N-NO 22 0 min 0,000 mm 0,5 UV-I 84 W/m 6,6 C 7,8 C 4,8 km/h (1 Bft) 98,00 %
14.10.2015 14:52 7,8 C 92 % 1015,1 hPa 0,0 l/m 1,2 km/h (1 Bft) N-NO 23 0 min 0,000 mm 0,5 UV-I 83 W/m 6,6 C 7,8 C 3,2 km/h (1 Bft) 100,00 %
14.10.2015 14:54 7,8 C 92 % 1015,1 hPa 0,0 l/m 1,1 km/h (1 Bft) N-NO 24 0 min 0,000 mm 0,5 UV-I 85 W/m 6,6 C 7,8 C 3,2 km/h (1 Bft) 100,00 %
14.10.2015 14:56 7,8 C 93 % 1015,2 hPa 0,0 l/m 1,9 km/h (1 Bft) N-NO 20 0 min 0,000 mm 0,5 UV-I 97 W/m 6,7 C 7,8 C 4,8 km/h (1 Bft) 100,00 %
14.10.2015 14:58 7,9 C 92 % 1015,1 hPa 0,2 l/m 1,5 km/h (1 Bft) N-NO 24 0 min 0,000 mm 0,5 UV-I 98 W/m 6,7 C 7,9 C 3,2 km/h (1 Bft) 100,00 %
14.10.2015 15:00 7,9 C 92 % 1015,1 hPa 0,0 l/m 1,6 km/h (1 Bft) NO 46 0 min 0,026 mm 0,5 UV-I 86 W/m 6,7 C 7,9 C 3,2 km/h (1 Bft) 100,00 %
14.10.2015 15:02 7,9 C 91 % 1015,1 hPa 0,0 l/m 1,2 km/h (1 Bft) O 94 0 min 0,000 mm 0,5 UV-I 85 W/m 6,5 C 7,9 C 3,2 km/h (1 Bft) 100,00 %
14.10.2015 15:04 7,9 C 92 % 1015,1 hPa 0,0 l/m 1,0 km/h (0 Bft) O 95 0 min 0,000 mm 0,4 UV-I 86 W/m 6,7 C 7,9 C 3,2 km/h (1 Bft) 100,00 %
14.10.2015 15:06 7,9 C 92 % 1015,1 hPa 0,0 l/m 1,4 km/h (1 Bft) NO 36 0 min 0,000 mm 0,0 UV-I 84 W/m 6,7 C 7,9 C 3,2 km/h (1 Bft) 100,00 %
14.10.2015 15:08 7,9 C 92 % 1015,1 hPa 0,0 l/m 1,4 km/h (1 Bft) N-NO 19 0 min 0,000 mm 0,0 UV-I 78 W/m 6,7 C 7,9 C 3,2 km/h (1 Bft) 100,00 %
14.10.2015 15:10 7,9 C 92 % 1015,1 hPa 0,0 l/m 1,8 km/h (1 Bft) N-NO 17 0 min 0,000 mm 0,0 UV-I 65 W/m 6,7 C 7,9 C 3,2 km/h (1 Bft) 98,44 %
14.10.2015 15:12 7,9 C 91 % 1015,2 hPa 0,0 l/m 2,3 km/h (1 Bft) N-NO 30 0 min 0,000 mm 0,0 UV-I 56 W/m 6,5 C 7,9 C 4,8 km/h (1 Bft) 97,92 %
14.10.2015 15:14 7,8 C 92 % 1015,2 hPa 0,0 l/m 2,7 km/h (1 Bft) N-NO 25 0 min 0,000 mm 0,0 UV-I 55 W/m 6,6 C 7,8 C 4,8 km/h (1 Bft) 100,00 %
14.10.2015 15:16 7,8 C 92 % 1015,1 hPa 0,0 l/m 2,5 km/h (1 Bft) N-NO 24 0 min 0,000 mm 0,0 UV-I 58 W/m 6,6 C 7,8 C 4,8 km/h (1 Bft) 100,00 %
14.10.2015 15:18 7,8 C 92 % 1015,2 hPa 0,0 l/m 1,4 km/h (1 Bft) N-NO 21 0 min 0,000 mm 0,0 UV-I 53 W/m 6,6 C 7,8 C 3,2 km/h (1 Bft) 100,00 %
14.10.2015 15:20 7,7 C 91 % 1015,1 hPa 0,0 l/m 1,5 km/h (1 Bft) NO 35 0 min 0,000 mm 0,0 UV-I 51 W/m 6,3 C 7,7 C 3,2 km/h (1 Bft) 97,87 %
14.10.2015 15:22 7,7 C 92 % 1015,1 hPa 0,0 l/m 1,9 km/h (1 Bft) NO 40 0 min 0,000 mm 0,0 UV-I 54 W/m 6,5 C 7,7 C 4,8 km/h (1 Bft) 100,00 %
14.10.2015 15:24 7,7 C 92 % 1015,2 hPa 0,0 l/m 2,1 km/h (1 Bft) NO 47 0 min 0,000 mm 0,0 UV-I 58 W/m 6,5 C 7,7 C 4,8 km/h (1 Bft) 97,37 %
14.10.2015 15:26 7,8 C 92 % 1015,1 hPa 0,0 l/m 1,7 km/h (1 Bft) N-NO 25 0 min 0,000 mm 0,0 UV-I 61 W/m 6,6 C 7,8 C 3,2 km/h (1 Bft) 100,00 %
14.10.2015 15:28 7,8 C 92 % 1015,1 hPa 0,0 l/m 2,3 km/h (1 Bft) N-NO 23 0 min 0,000 mm 0,0 UV-I 63 W/m 6,6 C 7,8 C 4,8 km/h (1 Bft) 100,00 %
14.10.2015 15:30 7,8 C 91 % 1015,2 hPa 0,0 l/m 0,9 km/h (0 Bft) N-NO 24 0 min 0,000 mm 0,0 UV-I 61 W/m 6,4 C 7,8 C 1,6 km/h (1 Bft) 100,00 %
14.10.2015 15:32 7,8 C 92 % 1015,2 hPa 0,0 l/m 1,8 km/h (1 Bft) N-NO 28 0 min 0,000 mm 0,0 UV-I 59 W/m 6,6 C 7,8 C 3,2 km/h (1 Bft) 100,00 %
14.10.2015 15:34 7,8 C 92 % 1015,1 hPa 0,0 l/m 3,3 km/h (1 Bft) N-NO 20 0 min 0,000 mm 0,0 UV-I 65 W/m 6,6 C 7,8 C 6,4 km/h (2 Bft) 100,00 %
14.10.2015 15:36 7,8 C 92 % 1015,0 hPa 0,0 l/m 2,5 km/h (1 Bft) N-NO 30 0 min 0,000 mm 0,0 UV-I 75 W/m 6,6 C 7,8 C 4,8 km/h (1 Bft) 100,00 %
14.10.2015 15:38 7,8 C 91 % 1015,0 hPa 0,0 l/m 2,7 km/h (1 Bft) N-NO 24 0 min 0,000 mm 0,0 UV-I 85 W/m 6,4 C 7,8 C 4,8 km/h (1 Bft) 100,00 %
14.10.2015 15:40 7,8 C 92 % 1015,0 hPa 0,0 l/m 3,0 km/h (1 Bft) N-NO 14 0 min 0,000 mm 0,0 UV-I 87 W/m 6,6 C 7,8 C 4,8 km/h (1 Bft) 100,00 %
14.10.2015 15:42 7,8 C 92 % 1015,0 hPa 0,0 l/m 2,4 km/h (1 Bft) N-NO 22 0 min 0,000 mm 0,0 UV-I 79 W/m 6,6 C 7,8 C 4,8 km/h (1 Bft) 98,00 %
14.10.2015 15:44 7,8 C 92 % 1015,1 hPa 0,0 l/m 2,6 km/h (1 Bft) N 360 0 min 0,000 mm 0,0 UV-I 68 W/m 6,6 C 7,8 C 4,8 km/h (1 Bft) 97,22 %
14.10.2015 15:46 7,8 C 92 % 1015,1 hPa 0,0 l/m 2,8 km/h (1 Bft) N-NO 14 0 min 0,000 mm 0,0 UV-I 61 W/m 6,6 C 7,8 C 4,8 km/h (1 Bft) 100,00 %
14.10.2015 15:48 7,8 C 92 % 1015,1 hPa 0,0 l/m 1,4 km/h (1 Bft) N 11 0 min 0,000 mm 0,0 UV-I 61 W/m 6,6 C 7,8 C 3,2 km/h (1 Bft) 100,00 %
14.10.2015 15:50 7,8 C 91 % 1015,1 hPa 0,0 l/m 1,7 km/h (1 Bft) N-NO 22 0 min 0,000 mm 0,0 UV-I 63 W/m 6,4 C 7,8 C 3,2 km/h (1 Bft) 97,44 %
14.10.2015 15:52 7,8 C 91 % 1015,2 hPa 0,0 l/m 1,4 km/h (1 Bft) NO 38 0 min 0,000 mm 0,0 UV-I 63 W/m 6,4 C 7,8 C 3,2 km/h (1 Bft) 100,00 %
14.10.2015 15:54 7,9 C 92 % 1015,2 hPa 0,0 l/m 1,0 km/h (0 Bft) N-NO 32 0 min 0,000 mm 0,0 UV-I 64 W/m 6,7 C 7,9 C 4,8 km/h (1 Bft) 100,00 %
14.10.2015 15:56 7,8 C 91 % 1015,2 hPa 0,0 l/m 2,4 km/h (1 Bft) N-NO 33 0 min 0,000 mm 0,0 UV-I 69 W/m 6,4 C 7,8 C 4,8 km/h (1 Bft) 97,56 %
14.10.2015 15:58 7,8 C 91 % 1015,2 hPa 0,0 l/m 2,6 km/h (1 Bft) N-NO 24 0 min 0,000 mm 0,0 UV-I 72 W/m 6,4 C 7,8 C 4,8 km/h (1 Bft) 100,00 %
14.10.2015 16:00 7,8 C 91 % 1015,2 hPa 0,0 l/m 1,6 km/h (1 Bft) NO 34 0 min 0,025 mm 0,0 UV-I 74 W/m 6,4 C 7,8 C 3,2 km/h (1 Bft) 100,00 %
14.10.2015 16:02 7,9 C 92 % 1015,1 hPa 0,0 l/m 1,7 km/h (1 Bft) NO 38 0 min 0,000 mm 0,0 UV-I 75 W/m 6,7 C 7,9 C 3,2 km/h (1 Bft) 100,00 %
14.10.2015 16:04 7,9 C 92 % 1015,0 hPa 0,0 l/m 1,7 km/h (1 Bft) N-NO 32 0 min 0,000 mm 0,0 UV-I 74 W/m 6,7 C 7,9 C 3,2 km/h (1 Bft) 100,00 %
14.10.2015 16:06 7,9 C 92 % 1015,0 hPa 0,0 l/m 1,5 km/h (1 Bft) N-NO 31 0 min 0,000 mm 0,0 UV-I 76 W/m 6,7 C 7,9 C 3,2 km/h (1 Bft) 100,00 %
14.10.2015 16:08 7,9 C 92 % 1015,1 hPa 0,0 l/m 2,0 km/h (1 Bft) N-NO 19 0 min 0,000 mm 0,0 UV-I 76 W/m 6,7 C 7,9 C 4,8 km/h (1 Bft) 100,00 %
14.10.2015 16:10 7,9 C 92 % 1015,0 hPa 0,0 l/m 2,3 km/h (1 Bft) N-NO 26 0 min 0,000 mm 0,0 UV-I 72 W/m 6,7 C 7,9 C 4,8 km/h (1 Bft) 100,00 %
14.10.2015 16:12 7,9 C 92 % 1014,9 hPa 0,0 l/m 2,7 km/h (1 Bft) N-NO 14 0 min 0,000 mm 0,0 UV-I 74 W/m 6,7 C 7,9 C 4,8 km/h (1 Bft) 100,00 %
14.10.2015 16:14 7,9 C 91 % 1014,9 hPa 0,0 l/m 2,7 km/h (1 Bft) N-NO 26 0 min 0,000 mm 0,0 UV-I 75 W/m 6,5 C 7,9 C 4,8 km/h (1 Bft) 96,00 %
14.10.2015 16:16 7,9 C 91 % 1014,9 hPa 0,0 l/m 2,4 km/h (1 Bft) NO 34 0 min 0,000 mm 0,0 UV-I 76 W/m 6,5 C 7,9 C 4,8 km/h (1 Bft) 100,00 %
14.10.2015 16:18 7,9 C 91 % 1014,8 hPa 0,0 l/m 2,4 km/h (1 Bft) N-NO 17 0 min 0,000 mm 0,0 UV-I 78 W/m 6,5 C 7,9 C 4,8 km/h (1 Bft) 100,00 %
14.10.2015 16:20 8,0 C 92 % 1014,8 hPa 0,0 l/m 1,9 km/h (1 Bft) N-NO 27 0 min 0,000 mm 0,0 UV-I 82 W/m 6,8 C 8,0 C 3,2 km/h (1 Bft) 100,00 %
14.10.2015 16:22 8,0 C 92 % 1014,8 hPa 0,0 l/m 2,3 km/h (1 Bft) N-NO 15 0 min 0,000 mm 0,0 UV-I 86 W/m 6,8 C 8,0 C 3,2 km/h (1 Bft) 97,56 %
14.10.2015 16:24 8,0 C 91 % 1014,6 hPa 0,0 l/m 2,4 km/h (1 Bft) NO 36 0 min 0,000 mm 0,0 UV-I 93 W/m 6,6 C 8,0 C 6,4 km/h (2 Bft) 98,00 %
14.10.2015 16:26 8,0 C 92 % 1014,6 hPa 0,0 l/m 1,6 km/h (1 Bft) NO 34 0 min 0,000 mm 0,0 UV-I 98 W/m 6,8 C 8,0 C 3,2 km/h (1 Bft) 100,00 %
14.10.2015 16:28 8,0 C 91 % 1014,7 hPa 0,0 l/m 2,7 km/h (1 Bft) NO 35 0 min 0,000 mm 0,0 UV-I 100 W/m 6,6 C 8,0 C 6,4 km/h (2 Bft) 100,00 %
14.10.2015 16:30 8,0 C 91 % 1014,8 hPa 0,0 l/m 3,1 km/h (1 Bft) N-NO 21 0 min 0,000 mm 0,0 UV-I 100 W/m 6,6 C 8,0 C 6,4 km/h (2 Bft) 100,00 %
14.10.2015 16:32 8,1 C 91 % 1014,8 hPa 0,0 l/m 1,9 km/h (1 Bft) N-NO 30 0 min 0,000 mm 0,0 UV-I 95 W/m 6,7 C 8,1 C 4,8 km/h (1 Bft) 100,00 %
14.10.2015 16:34 8,1 C 91 % 1014,8 hPa 0,0 l/m 2,2 km/h (1 Bft) N-NO 13 0 min 0,000 mm 0,0 UV-I 95 W/m 6,7 C 8,1 C 3,2 km/h (1 Bft) 98,00 %
14.10.2015 16:36 8,1 C 90 % 1014,8 hPa 0,0 l/m 3,7 km/h (1 Bft) O-NO 67 0 min 0,000 mm 0,0 UV-I 87 W/m 6,6 C 8,1 C 6,4 km/h (2 Bft) 100,00 %
14.10.2015 16:38 8,0 C 90 % 1014,9 hPa 0,0 l/m 1,4 km/h (1 Bft) NO 43 0 min 0,000 mm 0,0 UV-I 71 W/m 6,5 C 8,0 C 3,2 km/h (1 Bft) 98,00 %
14.10.2015 16:40 8,0 C 90 % 1014,9 hPa 0,0 l/m 2,4 km/h (1 Bft) N-NO 26 0 min 0,000 mm 0,0 UV-I 61 W/m 6,5 C 8,0 C 4,8 km/h (1 Bft) 100,00 %
14.10.2015 16:42 7,9 C 90 % 1014,7 hPa 0,0 l/m 3,4 km/h (1 Bft) N-NO 24 0 min 0,000 mm 0,0 UV-I 56 W/m 6,4 C 7,9 C 6,4 km/h (2 Bft) 98,00 %
14.10.2015 16:44 7,9 C 90 % 1014,7 hPa 0,0 l/m 2,7 km/h (1 Bft) N-NO 25 0 min 0,000 mm 0,0 UV-I 54 W/m 6,4 C 7,9 C 4,8 km/h (1 Bft) 100,00 %
14.10.2015 16:46 7,9 C 90 % 1014,6 hPa 0,0 l/m 1,9 km/h (1 Bft) NO 37 0 min 0,000 mm 0,0 UV-I 48 W/m 6,4 C 7,9 C 4,8 km/h (1 Bft) 98,11 %
14.10.2015 16:48 7,9 C 90 % 1014,6 hPa 0,0 l/m 1,5 km/h (1 Bft) NO 36 0 min 0,000 mm 0,0 UV-I 46 W/m 6,4 C 7,9 C 4,8 km/h (1 Bft) 97,37 %
14.10.2015 16:50 7,9 C 90 % 1014,6 hPa 0,0 l/m 2,9 km/h (1 Bft) NO 40 0 min 0,000 mm 0,0 UV-I 46 W/m 6,4 C 7,9 C 4,8 km/h (1 Bft) 100,00 %
14.10.2015 16:52 7,9 C 91 % 1014,6 hPa 0,0 l/m 2,5 km/h (1 Bft) N 5 0 min 0,000 mm 0,0 UV-I 45 W/m 6,5 C 7,9 C 3,2 km/h (1 Bft) 98,00 %
14.10.2015 16:54 7,8 C 90 % 1014,6 hPa 0,0 l/m 3,3 km/h (1 Bft) N 11 0 min 0,000 mm 0,0 UV-I 40 W/m 6,3 C 7,8 C 4,8 km/h (1 Bft) 100,00 %
14.10.2015 16:56 7,8 C 90 % 1014,6 hPa 0,0 l/m 2,6 km/h (1 Bft) O-NO 57 0 min 0,000 mm 0,0 UV-I 36 W/m 6,3 C 7,8 C 4,8 km/h (1 Bft) 96,00 %
14.10.2015 16:58 7,8 C 90 % 1014,6 hPa 0,0 l/m 2,2 km/h (1 Bft) N-NO 28 0 min 0,000 mm 0,0 UV-I 33 W/m 6,3 C 7,8 C 4,8 km/h (1 Bft) 100,00 %
14.10.2015 17:00 7,8 C 90 % 1014,6 hPa 0,0 l/m 2,2 km/h (1 Bft) N-NO 26 0 min 0,026 mm 0,0 UV-I 33 W/m 6,3 C 7,8 C 3,2 km/h (1 Bft) 100,00 %
14.10.2015 17:02 7,8 C 91 % 1014,5 hPa 0,0 l/m 1,6 km/h (1 Bft) N-NO 22 0 min 0,000 mm 0,0 UV-I 39 W/m 6,4 C 7,8 C 3,2 km/h (1 Bft) 100,00 %
14.10.2015 17:04 7,7 C 90 % 1014,5 hPa 0,0 l/m 2,1 km/h (1 Bft) N-NO 19 0 min 0,000 mm 0,0 UV-I 50 W/m 6,2 C 7,7 C 4,8 km/h (1 Bft) 100,00 %
14.10.2015 17:06 7,8 C 89 % 1014,6 hPa 0,0 l/m 1,9 km/h (1 Bft) N-NO 27 0 min 0,000 mm 0,0 UV-I 53 W/m 6,1 C 7,8 C 3,2 km/h (1 Bft) 97,37 %
14.10.2015 17:08 7,8 C 90 % 1014,7 hPa 0,0 l/m 1,8 km/h (1 Bft) N-NO 16 0 min 0,000 mm 0,0 UV-I 49 W/m 6,3 C 7,8 C 3,2 km/h (1 Bft) 98,11 %
14.10.2015 17:10 7,8 C 90 % 1014,7 hPa 0,0 l/m 2,0 km/h (1 Bft) N-NO 13 0 min 0,000 mm 0,0 UV-I 43 W/m 6,3 C 7,8 C 4,8 km/h (1 Bft) 100,00 %
14.10.2015 17:12 7,8 C 89 % 1014,7 hPa 0,0 l/m 3,3 km/h (1 Bft) N 360 0 min 0,000 mm 0,0 UV-I 36 W/m 6,1 C 7,8 C 4,8 km/h (1 Bft) 98,11 %
14.10.2015 17:14 7,8 C 90 % 1014,8 hPa 0,0 l/m 1,1 km/h (1 Bft) N 11 0 min 0,000 mm 0,0 UV-I 30 W/m 6,3 C 7,8 C 3,2 km/h (1 Bft) 100,00 %
14.10.2015 17:16 7,8 C 90 % 1014,7 hPa 0,0 l/m 0,5 km/h (0 Bft) N 11 0 min 0,000 mm 0,0 UV-I 28 W/m 6,3 C 7,8 C 1,6 km/h (1 Bft) 100,00 %
14.10.2015 17:18 7,8 C 90 % 1014,7 hPa 0,0 l/m 1,4 km/h (1 Bft) N 5 0 min 0,000 mm 0,0 UV-I 28 W/m 6,3 C 7,8 C 3,2 km/h (1 Bft) 100,00 %
14.10.2015 17:20 7,8 C 90 % 1014,6 hPa 0,0 l/m 0,4 km/h (0 Bft) N 5 0 min 0,000 mm 0,0 UV-I 30 W/m 6,3 C 7,8 C 1,6 km/h (1 Bft) 100,00 %
14.10.2015 17:22 7,8 C 90 % 1014,7 hPa 0,0 l/m 0,6 km/h (0 Bft) N 5 0 min 0,000 mm 0,0 UV-I 30 W/m 6,3 C 7,8 C 1,6 km/h (1 Bft) 100,00 %
14.10.2015 17:24 7,8 C 90 % 1014,6 hPa 0,0 l/m 0,4 km/h (0 Bft) N 5 0 min 0,000 mm 0,0 UV-I 28 W/m 6,3 C 7,8 C 1,6 km/h (1 Bft) 100,00 %
14.10.2015 17:26 7,8 C 90 % 1014,7 hPa 0,0 l/m 0,6 km/h (0 Bft) N 5 0 min 0,000 mm 0,0 UV-I 27 W/m 6,3 C 7,8 C 3,2 km/h (1 Bft) 100,00 %
14.10.2015 17:28 7,8 C 90 % 1014,7 hPa 0,0 l/m 0,1 km/h (0 Bft) N 5 0 min 0,000 mm 0,0 UV-I 28 W/m 6,3 C 7,8 C 1,6 km/h (1 Bft) 98,00 %
14.10.2015 17:30 7,8 C 90 % 1014,6 hPa 0,0 l/m 0,9 km/h (0 Bft) N 5 0 min 0,000 mm 0,0 UV-I 30 W/m 6,3 C 7,8 C 1,6 km/h (1 Bft) 100,00 %
14.10.2015 17:32 7,8 C 90 % 1014,7 hPa 0,0 l/m 0,5 km/h (0 Bft) N-NO 23 0 min 0,000 mm 0,0 UV-I 32 W/m 6,3 C 7,8 C 3,2 km/h (1 Bft) 100,00 %
14.10.2015 17:34 7,8 C 90 % 1014,8 hPa 0,0 l/m 0,7 km/h (0 Bft) N-NO 23 0 min 0,000 mm 0,0 UV-I 30 W/m 6,3 C 7,8 C 1,6 km/h (1 Bft) 98,00 %
14.10.2015 17:36 7,8 C 90 % 1014,7 hPa 0,0 l/m 0,3 km/h (0 Bft) N-NO 23 0 min 0,000 mm 0,0 UV-I 31 W/m 6,3 C 7,8 C 1,6 km/h (1 Bft) 100,00 %
14.10.2015 17:38 7,8 C 90 % 1014,7 hPa 0,0 l/m 0,1 km/h (0 Bft) N-NO 23 0 min 0,000 mm 0,0 UV-I 30 W/m 6,3 C 7,8 C 1,6 km/h (1 Bft) 95,74 %
14.10.2015 17:40 7,8 C 90 % 1014,7 hPa 0,0 l/m 0,3 km/h (0 Bft) N-NO 24 0 min 0,000 mm 0,0 UV-I 27 W/m 6,3 C 7,8 C 1,6 km/h (1 Bft) 100,00 %
14.10.2015 17:42 7,8 C 90 % 1014,7 hPa 0,0 l/m 0,8 km/h (0 Bft) N-NO 24 0 min 0,000 mm 0,0 UV-I 26 W/m 6,3 C 7,8 C 1,6 km/h (1 Bft) 100,00 %
14.10.2015 17:44 7,8 C 90 % 1014,7 hPa 0,0 l/m 0,8 km/h (0 Bft) N-NO 24 0 min 0,000 mm 0,0 UV-I 24 W/m 6,3 C 7,8 C 3,2 km/h (1 Bft) 100,00 %
14.10.2015 17:46 7,8 C 90 % 1014,7 hPa 0,0 l/m 0,9 km/h (0 Bft) N-NO 24 0 min 0,000 mm 0,0 UV-I 25 W/m 6,3 C 7,8 C 3,2 km/h (1 Bft) 100,00 %
14.10.2015 17:48 7,8 C 90 % 1014,7 hPa 0,0 l/m 0,4 km/h (0 Bft) N-NO 28 0 min 0,000 mm 0,0 UV-I 25 W/m 6,3 C 7,8 C 1,6 km/h (1 Bft) 98,00 %
14.10.2015 17:50 7,8 C 91 % 1014,7 hPa 0,0 l/m 0,8 km/h (0 Bft) N-NO 28 0 min 0,000 mm 0,0 UV-I 28 W/m 6,4 C 7,8 C 3,2 km/h (1 Bft) 100,00 %
14.10.2015 17:52 7,7 C 91 % 1014,5 hPa 0,0 l/m 0,6 km/h (0 Bft) N-NO 28 0 min 0,000 mm 0,0 UV-I 32 W/m 6,3 C 7,7 C 1,6 km/h (1 Bft) 100,00 %
14.10.2015 17:54 7,8 C 91 % 1014,5 hPa 0,0 l/m 0,1 km/h (0 Bft) N-NO 28 0 min 0,000 mm 0,0 UV-I 28 W/m 6,4 C 7,8 C 1,6 km/h (1 Bft) 97,87 %
14.10.2015 17:56 7,8 C 91 % 1014,5 hPa 0,0 l/m 0,0 km/h (0 Bft) N-NO 28 0 min 0,000 mm 0,0 UV-I 25 W/m 6,4 C 7,8 C 0,0 km/h (0 Bft) 100,00 %
14.10.2015 17:58 7,7 C 91 % 1014,5 hPa 0,0 l/m 0,6 km/h (0 Bft) N-NO 28 2 min 0,000 mm 0,0 UV-I 24 W/m 6,3 C 7,7 C 1,6 km/h (1 Bft) 100,00 %
14.10.2015 18:00 7,7 C 91 % 1014,5 hPa 0,0 l/m 0,3 km/h (0 Bft) NO 54 0 min 0,025 mm 0,0 UV-I 19 W/m 6,3 C 7,7 C 1,6 km/h (1 Bft) 100,00 %
14.10.2015 18:02 7,7 C 90 % 1014,6 hPa 0,0 l/m 2,1 km/h (1 Bft) O 82 0 min 0,000 mm 0,0 UV-I 16 W/m 6,2 C 7,7 C 4,8 km/h (1 Bft) 100,00 %
14.10.2015 18:04 7,7 C 90 % 1014,7 hPa 0,0 l/m 2,4 km/h (1 Bft) O-NO 78 0 min 0,000 mm 0,0 UV-I 13 W/m 6,2 C 7,7 C 4,8 km/h (1 Bft) 100,00 %
14.10.2015 18:06 7,7 C 90 % 1014,7 hPa 0,0 l/m 0,7 km/h (0 Bft) O-NO 74 2 min 0,000 mm 0,0 UV-I 11 W/m 6,2 C 7,7 C 1,6 km/h (1 Bft) 100,00 %
14.10.2015 18:08 7,7 C 91 % 1014,7 hPa 0,0 l/m 0,5 km/h (0 Bft) O-NO 74 0 min 0,000 mm 0,0 UV-I 9 W/m 6,3 C 7,7 C 1,6 km/h (1 Bft) 100,00 %
14.10.2015 18:10 7,7 C 91 % 1014,7 hPa 0,0 l/m 0,6 km/h (0 Bft) O-NO 74 0 min 0,000 mm 0,0 UV-I 8 W/m 6,3 C 7,7 C 1,6 km/h (1 Bft) 100,00 %
14.10.2015 18:12 7,6 C 91 % 1014,6 hPa 0,0 l/m 0,6 km/h (0 Bft) O-NO 74 0 min 0,000 mm 0,0 UV-I 6 W/m 6,2 C 7,6 C 1,6 km/h (1 Bft) 100,00 %
14.10.2015 18:14 7,6 C 90 % 1014,7 hPa 0,0 l/m 1,4 km/h (1 Bft) O-NO 74 0 min 0,000 mm 0,0 UV-I 3 W/m 6,1 C 7,6 C 3,2 km/h (1 Bft) 97,87 %
14.10.2015 18:15 7,6 C 91 % 1014,7 hPa 0,0 l/m 1,0 km/h (0 Bft) O-NO 74 0 min 0,000 mm 0,0 UV-I 0 W/m 6,2 C 7,6 C 1,6 km/h (1 Bft) 100,00 %
14.10.2015 18:16 7,6 C 91 % 1014,7 hPa 0,0 l/m 0,9 km/h (0 Bft) O-NO 73 0 min 0,000 mm 0,0 UV-I 0 W/m 6,2 C 7,6 C 3,2 km/h (1 Bft) 100,00 %
14.10.2015 18:17 7,6 C 91 % 1014,6 hPa 0,0 l/m 2,7 km/h (1 Bft) O 89 0 min 0,000 mm 0,0 UV-I 0 W/m 6,2 C 7,6 C 3,2 km/h (1 Bft) 100,00 %
14.10.2015 18:18 7,6 C 90 % 1014,6 hPa 0,0 l/m 1,9 km/h (1 Bft) O 90 0 min 0,000 mm 0,0 UV-I 0 W/m 6,1 C 7,6 C 3,2 km/h (1 Bft) 99,33 %
14.10.2015 18:19 7,6 C 90 % 1014,6 hPa 0,0 l/m 1,9 km/h (1 Bft) O 88 0 min 0,000 mm 0,0 UV-I 0 W/m 6,1 C 7,6 C 3,2 km/h (1 Bft) 100,00 %
14.10.2015 18:20 7,6 C 90 % 1014,6 hPa 0,0 l/m 2,5 km/h (1 Bft) O 80 0 min 0,000 mm 0,0 UV-I 0 W/m 6,1 C 7,6 C 3,2 km/h (1 Bft) 100,00 %
14.10.2015 18:21 7,6 C 91 % 1014,6 hPa 0,0 l/m 0,5 km/h (0 Bft) O 80 0 min 0,000 mm 0,0 UV-I 0 W/m 6,2 C 7,6 C 1,6 km/h (1 Bft) 95,83 %
14.10.2015 18:22 7,6 C 92 % 1014,7 hPa 0,0 l/m 0,7 km/h (0 Bft) O 80 0 min 0,000 mm 0,0 UV-I 0 W/m 6,4 C 7,6 C 1,6 km/h (1 Bft) 100,00 %
14.10.2015 18:23 7,6 C 92 % 1014,7 hPa 0,0 l/m 0,1 km/h (0 Bft) O 80 0 min 0,000 mm 0,0 UV-I 0 W/m 6,4 C 7,6 C 1,6 km/h (1 Bft) 97,37 %
14.10.2015 18:24 7,6 C 92 % 1014,6 hPa 0,0 l/m 0,3 km/h (0 Bft) O 80 0 min 0,000 mm 0,0 UV-I 0 W/m 6,4 C 7,6 C 1,6 km/h (1 Bft) 100,00 %
14.10.2015 18:25 7,5 C 93 % 1014,6 hPa 0,0 l/m 0,8 km/h (0 Bft) O 80 0 min 0,000 mm 0,0 UV-I 0 W/m 6,4 C 7,5 C 1,6 km/h (1 Bft) 100,00 %
14.10.2015 18:26 7,5 C 92 % 1014,6 hPa 0,0 l/m 0,4 km/h (0 Bft) O 80 0 min 0,000 mm 0,0 UV-I 0 W/m 6,3 C 7,5 C 1,6 km/h (1 Bft) 100,00 %
14.10.2015 18:27 7,4 C 92 % 1014,6 hPa 0,0 l/m 0,0 km/h (0 Bft) O 80 0 min 0,000 mm 0,0 UV-I 0 W/m 6,2 C 7,4 C 0,0 km/h (0 Bft) 100,00 %
14.10.2015 18:28 7,4 C 92 % 1014,6 hPa 0,0 l/m 0,1 km/h (0 Bft) O 80 0 min 0,000 mm 0,0 UV-I 0 W/m 6,2 C 7,4 C 1,6 km/h (1 Bft) 100,00 %
14.10.2015 18:29 7,4 C 92 % 1014,6 hPa 0,0 l/m 1,2 km/h (1 Bft) O 80 0 min 0,000 mm 0,0 UV-I 0 W/m 6,2 C 7,4 C 3,2 km/h (1 Bft) 100,00 %
14.10.2015 18:30 7,4 C 92 % 1014,6 hPa 0,0 l/m 0,0 km/h (0 Bft) O 80 0 min 0,000 mm 0,0 UV-I 0 W/m 6,2 C 7,4 C 0,0 km/h (0 Bft) 95,83 %
14.10.2015 18:31 7,4 C 92 % 1014,6 hPa 0,0 l/m 0,3 km/h (0 Bft) O 80 0 min 0,000 mm 0,0 UV-I 0 W/m 6,2 C 7,4 C 1,6 km/h (1 Bft) 95,65 %
14.10.2015 18:32 7,4 C 92 % 1014,6 hPa 0,0 l/m 0,0 km/h (0 Bft) O 80 0 min 0,000 mm 0,0 UV-I 0 W/m 6,2 C 7,4 C 0,0 km/h (0 Bft) 100,00 %
14.10.2015 18:33 7,4 C 92 % 1014,6 hPa 0,0 l/m 0,1 km/h (0 Bft) O 80 0 min 0,000 mm 0,0 UV-I 0 W/m 6,2 C 7,4 C 1,6 km/h (1 Bft) 95,65 %
14.10.2015 18:34 7,4 C 92 % 1014,6 hPa 0,0 l/m 0,3 km/h (0 Bft) O 80 0 min 0,000 mm 0,0 UV-I 0 W/m 6,2 C 7,4 C 3,2 km/h (1 Bft) 100,00 %
14.10.2015 18:35 7,4 C 92 % 1014,6 hPa 0,0 l/m 1,6 km/h (1 Bft) O 80 0 min 0,000 mm 0,0 UV-I 0 W/m 6,2 C 7,4 C 3,2 km/h (1 Bft) 100,00 %
14.10.2015 18:36 7,5 C 91 % 1014,6 hPa 0,0 l/m 2,0 km/h (1 Bft) O 80 0 min 0,000 mm 0,0 UV-I 0 W/m 6,1 C 7,5 C 3,2 km/h (1 Bft) 100,00 %
14.10.2015 18:37 7,5 C 92 % 1014,6 hPa 0,0 l/m 1,3 km/h (1 Bft) O 82 0 min 0,000 mm 0,0 UV-I 0 W/m 6,3 C 7,5 C 3,2 km/h (1 Bft) 100,00 %
14.10.2015 18:38 7,5 C 91 % 1014,6 hPa 0,0 l/m 2,9 km/h (1 Bft) O 91 0 min 0,000 mm 0,0 UV-I 0 W/m 6,1 C 7,5 C 4,8 km/h (1 Bft) 100,00 %
14.10.2015 18:39 7,5 C 92 % 1014,6 hPa 0,0 l/m 1,1 km/h (1 Bft) O-NO 78 0 min 0,000 mm 0,0 UV-I 0 W/m 6,3 C 7,5 C 3,2 km/h (1 Bft) 100,00 %
14.10.2015 18:40 7,5 C 92 % 1014,7 hPa 0,0 l/m 2,7 km/h (1 Bft) O-NO 74 0 min 0,000 mm 0,0 UV-I 0 W/m 6,3 C 7,5 C 4,8 km/h (1 Bft) 100,00 %
14.10.2015 18:41 7,5 C 91 % 1014,7 hPa 0,0 l/m 1,9 km/h (1 Bft) O-NO 65 0 min 0,000 mm 0,0 UV-I 0 W/m 6,1 C 7,5 C 3,2 km/h (1 Bft) 100,00 %
14.10.2015 18:42 7,6 C 92 % 1014,6 hPa 0,0 l/m 1,5 km/h (1 Bft) O-NO 70 0 min 0,000 mm 0,0 UV-I 0 W/m 6,4 C 7,6 C 3,2 km/h (1 Bft) 100,00 %
14.10.2015 18:43 7,6 C 91 % 1014,7 hPa 0,0 l/m 1,8 km/h (1 Bft) O-NO 78 0 min 0,000 mm 0,0 UV-I 0 W/m 6,2 C 7,6 C 3,2 km/h (1 Bft) 100,00 %
14.10.2015 18:44 7,6 C 91 % 1014,6 hPa 0,0 l/m 1,3 km/h (1 Bft) O-NO 78 0 min 0,000 mm 0,0 UV-I 0 W/m 6,2 C 7,6 C 3,2 km/h (1 Bft) 100,00 %
14.10.2015 18:45 7,5 C 91 % 1014,6 hPa 0,0 l/m 0,9 km/h (0 Bft) O-NO 78 0 min 0,000 mm 0,0 UV-I 0 W/m 6,1 C 7,5 C 1,6 km/h (1 Bft) 100,00 %
14.10.2015 18:50 7,6 C 91 % 1014,6 hPa 0,0 l/m 2,8 km/h (1 Bft) O-NO 57 0 min 0,000 mm 0,0 UV-I 0 W/m 6,2 C 7,6 C 6,4 km/h (2 Bft) 100,00 %
14.10.2015 18:55 7,5 C 91 % 1014,7 hPa 0,0 l/m 2,7 km/h (1 Bft) O-NO 74 0 min 0,000 mm 0,0 UV-I 0 W/m 6,1 C 7,5 C 6,4 km/h (2 Bft) 99,13 %
14.10.2015 19:00 7,5 C 91 % 1014,6 hPa 0,0 l/m 2,9 km/h (1 Bft) O 84 0 min 0,000 mm 0,0 UV-I 0 W/m 6,1 C 7,5 C 6,4 km/h (2 Bft) 99,13 %
14.10.2015 19:05 7,5 C 92 % 1014,6 hPa 0,0 l/m 2,7 km/h (1 Bft) O-NO 75 0 min 0,000 mm 0,0 UV-I 0 W/m 6,3 C 7,5 C 6,4 km/h (2 Bft) 99,12 %
14.10.2015 19:10 7,4 C 92 % 1014,5 hPa 0,0 l/m 1,9 km/h (1 Bft) O-NO 71 0 min 0,000 mm 0,0 UV-I 0 W/m 6,2 C 7,4 C 4,8 km/h (1 Bft) 99,21 %
14.10.2015 19:15 7,4 C 92 % 1014,4 hPa 0,0 l/m 3,0 km/h (1 Bft) O-NO 74 0 min 0,000 mm 0,0 UV-I 0 W/m 6,2 C 7,4 C 6,4 km/h (2 Bft) 100,00 %
14.10.2015 19:20 7,4 C 93 % 1014,5 hPa 0,0 l/m 2,6 km/h (1 Bft) O 98 0 min 0,000 mm 0,0 UV-I 0 W/m 6,3 C 7,4 C 6,4 km/h (2 Bft) 98,35 %
14.10.2015 19:25 7,4 C 93 % 1014,6 hPa 0,0 l/m 1,8 km/h (1 Bft) O-SO 114 0 min 0,000 mm 0,0 UV-I 0 W/m 6,3 C 7,4 C 6,4 km/h (2 Bft) 99,11 %
14.10.2015 19:30 7,3 C 93 % 1014,6 hPa 0,0 l/m 3,3 km/h (1 Bft) O 88 0 min 0,000 mm 0,0 UV-I 0 W/m 6,2 C 7,3 C 6,4 km/h (2 Bft) 100,00 %
14.10.2015 19:35 7,3 C 92 % 1014,5 hPa 0,0 l/m 4,6 km/h (1 Bft) O-NO 59 0 min 0,000 mm 0,0 UV-I 0 W/m 6,1 C 7,3 C 9,7 km/h (2 Bft) 97,44 %
14.10.2015 19:40 7,3 C 92 % 1014,3 hPa 0,0 l/m 6,2 km/h (2 Bft) O 101 0 min 0,000 mm 0,0 UV-I 0 W/m 6,1 C 7,3 C 11,3 km/h (2 Bft) 99,13 %
14.10.2015 19:45 7,3 C 93 % 1014,2 hPa 0,0 l/m 4,1 km/h (1 Bft) O-NO 76 0 min 0,000 mm 0,0 UV-I 0 W/m 6,2 C 7,3 C 9,7 km/h (2 Bft) 97,62 %
14.10.2015 19:50 7,3 C 93 % 1014,2 hPa 0,0 l/m 4,2 km/h (1 Bft) O-SO 113 0 min 0,000 mm 0,0 UV-I 0 W/m 6,2 C 7,3 C 9,7 km/h (2 Bft) 99,13 %
14.10.2015 19:55 7,3 C 93 % 1014,2 hPa 0,0 l/m 4,5 km/h (1 Bft) NO 38 0 min 0,000 mm 0,0 UV-I 0 W/m 6,2 C 7,3 C 8,0 km/h (2 Bft) 99,11 %
14.10.2015 20:00 7,3 C 92 % 1014,1 hPa 0,0 l/m 6,6 km/h (2 Bft) NO 51 0 min 0,000 mm 0,0 UV-I 0 W/m 6,1 C 7,2 C 11,3 km/h (2 Bft) 99,12 %
14.10.2015 20:05 7,3 C 93 % 1014,1 hPa 0,0 l/m 5,1 km/h (1 Bft) O 90 0 min 0,000 mm 0,0 UV-I 0 W/m 6,2 C 7,3 C 12,9 km/h (3 Bft) 100,00 %
14.10.2015 20:10 7,3 C 93 % 1014,3 hPa 0,0 l/m 3,9 km/h (1 Bft) O-NO 74 0 min 0,000 mm 0,0 UV-I 0 W/m 6,2 C 7,3 C 9,7 km/h (2 Bft) 100,00 %
14.10.2015 20:15 7,3 C 93 % 1014,4 hPa 0,0 l/m 3,8 km/h (1 Bft) O-NO 63 0 min 0,000 mm 0,0 UV-I 0 W/m 6,2 C 7,3 C 8,0 km/h (2 Bft) 99,12 %
14.10.2015 20:20 7,3 C 93 % 1014,3 hPa 0,0 l/m 4,7 km/h (1 Bft) O 81 0 min 0,000 mm 0,0 UV-I 0 W/m 6,2 C 7,3 C 12,9 km/h (3 Bft) 100,00 %
14.10.2015 20:25 7,2 C 93 % 1013,9 hPa 0,0 l/m 3,6 km/h (1 Bft) O-SO 105 0 min 0,000 mm 0,0 UV-I 0 W/m 6,1 C 7,2 C 12,9 km/h (3 Bft) 100,00 %
14.10.2015 20:30 7,2 C 93 % 1014,0 hPa 0,0 l/m 3,6 km/h (1 Bft) O-NO 67 0 min 0,000 mm 0,0 UV-I 0 W/m 6,1 C 7,2 C 9,7 km/h (2 Bft) 99,19 %
14.10.2015 20:35 7,2 C 93 % 1013,9 hPa 0,0 l/m 3,5 km/h (1 Bft) O-NO 76 0 min 0,000 mm 0,0 UV-I 0 W/m 6,1 C 7,2 C 9,7 km/h (2 Bft) 99,11 %
14.10.2015 20:40 7,1 C 93 % 1014,1 hPa 0,0 l/m 3,8 km/h (1 Bft) O 79 0 min 0,000 mm 0,0 UV-I 0 W/m 6,0 C 7,1 C 11,3 km/h (2 Bft) 100,00 %
14.10.2015 20:45 7,1 C 94 % 1014,2 hPa 0,0 l/m 5,9 km/h (2 Bft) O-NO 74 0 min 0,000 mm 0,0 UV-I 0 W/m 6,2 C 7,1 C 12,9 km/h (3 Bft) 98,21 %
14.10.2015 20:50 7,1 C 93 % 1014,1 hPa 0,0 l/m 6,7 km/h (2 Bft) O-NO 75 0 min 0,000 mm 0,0 UV-I 0 W/m 6,0 C 6,9 C 12,9 km/h (3 Bft) 100,00 %
14.10.2015 20:55 7,1 C 94 % 1014,1 hPa 0,0 l/m 5,2 km/h (1 Bft) O 84 0 min 0,000 mm 0,0 UV-I 0 W/m 6,2 C 7,1 C 11,3 km/h (2 Bft) 99,17 %
14.10.2015 21:00 7,1 C 94 % 1014,0 hPa 0,0 l/m 6,2 km/h (2 Bft) O 89 0 min 0,000 mm 0,0 UV-I 0 W/m 6,2 C 7,1 C 12,9 km/h (3 Bft) 99,13 %
14.10.2015 21:05 7,1 C 93 % 1013,9 hPa 0,0 l/m 5,9 km/h (2 Bft) O-NO 71 0 min 0,000 mm 0,0 UV-I 0 W/m 6,0 C 7,1 C 14,5 km/h (3 Bft) 100,00 %
14.10.2015 21:10 7,1 C 93 % 1014,0 hPa 0,0 l/m 7,2 km/h (2 Bft) O 88 0 min 0,000 mm 0,0 UV-I 0 W/m 6,0 C 6,4 C 12,9 km/h (3 Bft) 99,21 %
14.10.2015 21:15 7,1 C 93 % 1013,9 hPa 0,0 l/m 5,4 km/h (1 Bft) NO 48 0 min 0,000 mm 0,0 UV-I 0 W/m 6,0 C 7,1 C 11,3 km/h (2 Bft) 100,00 %
14.10.2015 21:20 7,1 C 93 % 1013,8 hPa 0,0 l/m 5,5 km/h (1 Bft) N-NO 30 0 min 0,000 mm 0,0 UV-I 0 W/m 6,0 C 7,1 C 12,9 km/h (3 Bft) 99,10 %
14.10.2015 21:25 7,1 C 94 % 1013,8 hPa 0,0 l/m 4,4 km/h (1 Bft) O-SO 113 0 min 0,000 mm 0,0 UV-I 0 W/m 6,2 C 7,1 C 11,3 km/h (2 Bft) 99,19 %
14.10.2015 21:30 7,1 C 94 % 1013,7 hPa 0,0 l/m 4,4 km/h (1 Bft) O-NO 67 0 min 0,000 mm 0,0 UV-I 0 W/m 6,2 C 7,1 C 12,9 km/h (3 Bft) 100,00 %
14.10.2015 21:35 7,1 C 94 % 1013,6 hPa 0,0 l/m 5,5 km/h (1 Bft) O-NO 72 0 min 0,000 mm 0,0 UV-I 0 W/m 6,2 C 7,1 C 11,3 km/h (2 Bft) 100,00 %
14.10.2015 21:40 7,1 C 93 % 1013,6 hPa 0,0 l/m 7,3 km/h (2 Bft) O 94 0 min 0,000 mm 0,0 UV-I 0 W/m 6,0 C 6,4 C 12,9 km/h (3 Bft) 100,00 %
14.10.2015 21:45 7,1 C 93 % 1013,7 hPa 0,0 l/m 6,5 km/h (2 Bft) O-NO 57 0 min 0,000 mm 0,0 UV-I 0 W/m 6,0 C 7,0 C 11,3 km/h (2 Bft) 99,21 %
14.10.2015 21:50 7,1 C 93 % 1013,7 hPa 0,0 l/m 8,1 km/h (2 Bft) O-NO 78 0 min 0,000 mm 0,0 UV-I 0 W/m 6,0 C 5,7 C 14,5 km/h (3 Bft) 99,11 %
14.10.2015 21:55 7,1 C 94 % 1013,7 hPa 0,0 l/m 6,8 km/h (2 Bft) O 96 0 min 0,000 mm 0,0 UV-I 0 W/m 6,2 C 6,8 C 12,9 km/h (3 Bft) 100,00 %
14.10.2015 22:00 7,1 C 94 % 1013,7 hPa 0,0 l/m 4,2 km/h (1 Bft) O 81 0 min 0,000 mm 0,0 UV-I 0 W/m 6,2 C 7,1 C 9,7 km/h (2 Bft) 97,56 %
14.10.2015 22:05 7,1 C 94 % 1013,9 hPa 0,0 l/m 4,2 km/h (1 Bft) O-NO 68 0 min 0,000 mm 0,0 UV-I 0 W/m 6,2 C 7,1 C 9,7 km/h (2 Bft) 99,13 %
14.10.2015 22:10 7,1 C 94 % 1014,0 hPa 0,0 l/m 4,9 km/h (1 Bft) O 82 0 min 0,000 mm 0,0 UV-I 0 W/m 6,2 C 7,1 C 11,3 km/h (2 Bft) 99,11 %
14.10.2015 22:15 7,1 C 94 % 1013,9 hPa 0,0 l/m 4,0 km/h (1 Bft) O 86 0 min 0,000 mm 0,0 UV-I 0 W/m 6,2 C 7,1 C 9,7 km/h (2 Bft) 100,00 %
14.10.2015 22:20 7,1 C 94 % 1013,9 hPa 0,0 l/m 3,5 km/h (1 Bft) O 81 0 min 0,000 mm 0,0 UV-I 0 W/m 6,2 C 7,1 C 12,9 km/h (3 Bft) 99,21 %
14.10.2015 22:25 7,1 C 94 % 1013,8 hPa 0,0 l/m 2,6 km/h (1 Bft) N-NO 22 0 min 0,000 mm 0,0 UV-I 0 W/m 6,2 C 7,1 C 8,0 km/h (2 Bft) 98,00 %
14.10.2015 22:30 7,1 C 94 % 1013,9 hPa 0,0 l/m 2,4 km/h (1 Bft) O-NO 62 0 min 0,000 mm 0,0 UV-I 0 W/m 6,2 C 7,1 C 6,4 km/h (2 Bft) 99,21 %
14.10.2015 22:35 7,1 C 94 % 1013,8 hPa 0,0 l/m 1,8 km/h (1 Bft) NO 53 0 min 0,000 mm 0,0 UV-I 0 W/m 6,2 C 7,1 C 4,8 km/h (1 Bft) 100,00 %
14.10.2015 22:40 7,1 C 94 % 1013,7 hPa 0,0 l/m 2,5 km/h (1 Bft) N-NO 16 0 min 0,000 mm 0,0 UV-I 0 W/m 6,2 C 7,1 C 6,4 km/h (2 Bft) 99,21 %
14.10.2015 22:45 7,1 C 94 % 1013,5 hPa 0,0 l/m 3,0 km/h (1 Bft) NO 34 0 min 0,000 mm 0,0 UV-I 0 W/m 6,2 C 7,1 C 6,4 km/h (2 Bft) 100,00 %
14.10.2015 22:50 7,1 C 95 % 1013,5 hPa 0,0 l/m 2,2 km/h (1 Bft) NO 41 0 min 0,000 mm 0,0 UV-I 0 W/m 6,4 C 7,1 C 4,8 km/h (1 Bft) 100,00 %
14.10.2015 22:55 7,1 C 95 % 1013,6 hPa 0,0 l/m 2,8 km/h (1 Bft) N-NO 28 0 min 0,000 mm 0,0 UV-I 0 W/m 6,4 C 7,1 C 6,4 km/h (2 Bft) 99,17 %
14.10.2015 23:00 7,0 C 95 % 1013,5 hPa 0,0 l/m 2,1 km/h (1 Bft) N-NO 32 0 min 0,000 mm 0,0 UV-I 0 W/m 6,3 C 7,0 C 4,8 km/h (1 Bft) 100,00 %
14.10.2015 23:05 7,0 C 95 % 1013,4 hPa 0,0 l/m 1,5 km/h (1 Bft) NO 36 0 min 0,000 mm 0,0 UV-I 0 W/m 6,3 C 7,0 C 4,8 km/h (1 Bft) 100,00 %
14.10.2015 23:10 7,0 C 95 % 1013,3 hPa 0,2 l/m 1,8 km/h (1 Bft) N-NO 30 0 min 0,000 mm 0,0 UV-I 0 W/m 6,3 C 7,0 C 4,8 km/h (1 Bft) 100,00 %
14.10.2015 23:15 7,0 C 95 % 1013,3 hPa 0,2 l/m 1,7 km/h (1 Bft) NO 53 0 min 0,000 mm 0,0 UV-I 0 W/m 6,3 C 7,0 C 4,8 km/h (1 Bft) 100,00 %
14.10.2015 23:20 6,9 C 95 % 1013,2 hPa 0,0 l/m 1,7 km/h (1 Bft) NO 51 0 min 0,000 mm 0,0 UV-I 0 W/m 6,2 C 6,9 C 4,8 km/h (1 Bft) 99,13 %
14.10.2015 23:25 6,9 C 95 % 1013,1 hPa 0,0 l/m 2,9 km/h (1 Bft) N-NO 18 0 min 0,000 mm 0,0 UV-I 0 W/m 6,2 C 6,9 C 6,4 km/h (2 Bft) 100,00 %
14.10.2015 23:30 6,9 C 95 % 1013,0 hPa 0,2 l/m 2,5 km/h (1 Bft) N-NO 22 0 min 0,000 mm 0,0 UV-I 0 W/m 6,2 C 6,9 C 6,4 km/h (2 Bft) 99,11 %
14.10.2015 23:35 6,9 C 95 % 1012,9 hPa 0,2 l/m 2,3 km/h (1 Bft) N-NO 29 0 min 0,000 mm 0,0 UV-I 0 W/m 6,2 C 6,9 C 4,8 km/h (1 Bft) 100,00 %
14.10.2015 23:40 6,9 C 96 % 1012,9 hPa 0,0 l/m 2,2 km/h (1 Bft) NO 55 0 min 0,000 mm 0,0 UV-I 0 W/m 6,3 C 6,9 C 8,0 km/h (2 Bft) 100,00 %
14.10.2015 23:45 6,8 C 96 % 1012,8 hPa 0,2 l/m 2,0 km/h (1 Bft) NO 49 0 min 0,000 mm 0,0 UV-I 0 W/m 6,2 C 6,8 C 4,8 km/h (1 Bft) 100,00 %
14.10.2015 23:50 6,8 C 96 % 1012,7 hPa 0,2 l/m 3,1 km/h (1 Bft) N-NO 16 0 min 0,000 mm 0,0 UV-I 0 W/m 6,2 C 6,8 C 8,0 km/h (2 Bft) 100,00 %
14.10.2015 23:55 6,8 C 96 % 1012,6 hPa 0,0 l/m 4,2 km/h (1 Bft) NO 56 0 min 0,000 mm 0,0 UV-I 0 W/m 6,2 C 6,8 C 9,7 km/h (2 Bft) 100,00 %
_ Min-Zeit 03:24 11:04 01:08 - 01:40 - - - - - - 03:24 05:54 01:40 08:00
Minimum _ 4,4 C 89 % 1011,7 hPa - 0,0 km/h (0 Bft) - - - - - - 3,7 C 2,4 C 0,0 km/h (0 Bft) 94,00 %
_ Max-Zeit 12:14 04:25 11:32 00:46 06:42 - - 09:40 11:00 11:58 09:54 12:04 12:14 06:10 00:00
Maximum _ 8,1 C 96 % 1015,9 hPa 0,2 l/m 9,6 km/h
S-SW (2 Bft)
- - 2 min 0,076 mm 1,3 UV-I 258 W/m 6,8 C 8,1 C 19,3 km/h
SW (3 Bft)
100,00 %
Durchschnitt _ 6,5 C 93 % 1014,4 hPa #5,2 l/m 3,2 km/h (1 Bft) N-NO - #20 min. #0,381 mm 0,6 UV-I 80 W/m 5,4 C 6,4 C 6,5 km/h (2 Bft) 99,38 %